Observation data for Menard on 12/08/2018      Previous  Date       Current Mesonet Observations  Soil Data  Daily Summary Page  Observations in Plain Language
KMD1 080600Z 01007KT 03/03 A302 RMK A01 T00330029  RH  097%=      5-min Rain = 0
KMD1 080601Z 00006KT 03/03 A302 RMK A01 T00330028  RH  097%=      5-min Rain = 0
KMD1 080602Z 00006KT 03/03 A302 RMK A01 T00330029  RH  097%=      5-min Rain = 0
KMD1 080603Z 01008KT 03/03 A302 RMK A01 T00330029  RH  097%=      5-min Rain = 0
KMD1 080604Z 01008KT 03/03 A3019 RMK A01 T00330029  RH  097%=      5-min Rain = 0
KMD1 080605Z 02008KT 03/03 A3019 RMK A01 T00330029  RH  097%=      5-min Rain = 0
KMD1 080606Z 02009KT 03/03 A3019 RMK A01 T00330029  RH  097%=      5-min Rain = 0
KMD1 080607Z 01010KT 03/03 A302 RMK A01 T00330028  RH  097%=      5-min Rain = 0
KMD1 080608Z 01009KT 03/03 A302 RMK A01 T00330028  RH  097%=      5-min Rain = 0
KMD1 080609Z 01007KT 03/03 A302 RMK A01 T00320027  RH  097%=      5-min Rain = 0
KMD1 080610Z 01007KT 03/03 A302 RMK A01 T00320027  RH  097%=      5-min Rain = 0
KMD1 080611Z 01007KT 03/03 A302 RMK A01 T00320027  RH  097%=      5-min Rain = 0
KMD1 080612Z 01007KT 03/03 A302 RMK A01 T00330027  RH  097%=      5-min Rain = 0
KMD1 080613Z 01006KT 03/03 A302 RMK A01 T00330028  RH  097%=      5-min Rain = 0
KMD1 080614Z 02007KT 03/03 A302 RMK A01 T00330028  RH  097%=      5-min Rain = 0
KMD1 080615Z 02008KT 03/03 A302 RMK A01 T00330028  RH  096%=      5-min Rain = 0
KMD1 080616Z 03008KT 03/03 A302 RMK A01 T00330028  RH  096%=      5-min Rain = 0
KMD1 080617Z 02009KT 03/03 A302 RMK A01 T00330027  RH  096%=      5-min Rain = 0
KMD1 080618Z 02010KT 03/03 A302 RMK A01 T00320027  RH  096%=      5-min Rain = 0
KMD1 080619Z 02008KT 03/03 A302 RMK A01 T00320026  RH  096%=      5-min Rain = 0
KMD1 080620Z 02007KT 03/03 A302 RMK A01 T00320026  RH  096%=      5-min Rain = 0
KMD1 080621Z 02008KT 03/03 A3019 RMK A01 T00320027  RH  096%=      5-min Rain = 0
KMD1 080622Z 02008KT 03/03 A3019 RMK A01 T00320026  RH  096%=      5-min Rain = 0
KMD1 080623Z 03007KT 03/03 A3019 RMK A01 T00320026  RH  096%=      5-min Rain = 0
KMD1 080624Z 01005KT 03/03 A3019 RMK A01 T00320026  RH  096%=      5-min Rain = 0
KMD1 080625Z 02004KT 03/03 A3019 RMK A01 T00320027  RH  096%=      5-min Rain = 0
KMD1 080626Z 02006KT 03/03 A3019 RMK A01 T00320027  RH  096%=      5-min Rain = 0
KMD1 080627Z 01005KT 03/03 A3019 RMK A01 T00320027  RH  097%=      5-min Rain = 0
KMD1 080628Z 01006KT 03/03 A3019 RMK A01 T00330028  RH  097%=      5-min Rain = 0
KMD1 080629Z 01007KT 03/03 A3019 RMK A01 T00320027  RH  097%=      5-min Rain = 0
KMD1 080630Z 01008KT 03/03 A3019 RMK A01 T00320027  RH  096%=      5-min Rain = 0
KMD1 080631Z 01009KT 03/03 A3019 RMK A01 T00320027  RH  097%=      5-min Rain = 0
KMD1 080632Z 01009KT 03/03 A3019 RMK A01 T00310026  RH  096%=      5-min Rain = 0
KMD1 080633Z 01007KT 03/03 A3019 RMK A01 T00310026  RH  096%=      5-min Rain = 0
KMD1 080634Z 01009KT 03/03 A3019 RMK A01 T00310026  RH  096%=      5-min Rain = 0
KMD1 080635Z 00009KT 03/03 A3019 RMK A01 T00310026  RH  096%=      5-min Rain = 0
KMD1 080636Z 02010KT 03/03 A3019 RMK A01 T00320026  RH  096%=      5-min Rain = 0
KMD1 080637Z 01010KT 03/03 A3019 RMK A01 T00320026  RH  096%=      5-min Rain = 0
KMD1 080638Z 01008KT 03/03 A3019 RMK A01 T00310026  RH  096%=      5-min Rain = 0
KMD1 080639Z 02009KT 03/03 A3019 RMK A01 T00320027  RH  097%=      5-min Rain = 0
KMD1 080640Z 00008KT 03/03 A3019 RMK A01 T00320027  RH  097%=      5-min Rain = 0
KMD1 080641Z 00008KT 03/03 A3019 RMK A01 T00310026  RH  096%=      5-min Rain = 0
KMD1 080642Z 01008KT 03/03 A302 RMK A01 T00310026  RH  097%=      5-min Rain = 0
KMD1 080643Z 01007KT 03/03 A302 RMK A01 T00310027  RH  097%=      5-min Rain = 0
KMD1 080644Z 01008KT 03/03 A302 RMK A01 T00310027  RH  097%=      5-min Rain = 0
KMD1 080645Z 36010KT 03/03 A302 RMK A01 T00320027  RH  097%=      5-min Rain = 0
KMD1 080646Z 00009KT 03/03 A302 RMK A01 T00320027  RH  097%=      5-min Rain = 0
KMD1 080647Z 01009KT 03/03 A302 RMK A01 T00310026  RH  097%=      5-min Rain = 0
KMD1 080648Z 00008KT 03/03 A302 RMK A01 T00310026  RH  097%=      5-min Rain = 0
KMD1 080649Z 00009KT 03/03 A302 RMK A01 T00310027  RH  097%=      5-min Rain = 0
KMD1 080650Z 00010KT 03/03 A302 RMK A01 T00320027  RH  097%=      5-min Rain = 0
KMD1 080651Z 36009KT 03/03 A302 RMK A01 T00310026  RH  096%=      5-min Rain = 0
KMD1 080652Z 36009KT 03/03 A3019 RMK A01 T00320027  RH  096%=      5-min Rain = 0
KMD1 080653Z 01007KT 03/03 A3019 RMK A01 T00320027  RH  097%=      5-min Rain = 0
KMD1 080654Z 01006KT 03/03 A3019 RMK A01 T00320027  RH  097%=      5-min Rain = 0
KMD1 080655Z 01008KT 03/03 A3019 RMK A01 T00320027  RH  097%=      5-min Rain = 0
KMD1 080656Z 02010KT 03/03 A3019 RMK A01 T00320027  RH  097%=      5-min Rain = 0
KMD1 080657Z 01009KT 03/03 A3018 RMK A01 T00320027  RH  097%=      5-min Rain = 0
KMD1 080658Z 01009KT 03/03 A3018 RMK A01 T00320027  RH  097%=      5-min Rain = 0
KMD1 080659Z 01009KT 03/03 A3018 RMK A01 T00320027  RH  097%=      5-min Rain = 0
KMD1 080700Z 01011KT 03/03 A3018 RMK A01 T00320027  RH  097%=      5-min Rain = 0
KMD1 080701Z 01012KT 03/03 A3018 RMK A01 T00310027  RH  097%=      5-min Rain = 0
KMD1 080702Z 01011G16KT 03/03 A3018 RMK A01 T00320027  RH  097%=      5-min Rain = 0
KMD1 080703Z 01012KT 03/03 A3018 RMK A01 T00310027  RH  097%=      5-min Rain = 0
KMD1 080704Z 01012KT 03/03 A3018 RMK A01 T00310027  RH  097%=      5-min Rain = 0
KMD1 080705Z 00010KT 03/03 A3017 RMK A01 T00310026  RH  097%=      5-min Rain = 0
KMD1 080706Z 01009KT 03/03 A3017 RMK A01 T00310027  RH  097%=      5-min Rain = 0
KMD1 080707Z 01011G17KT 03/03 A3017 RMK A01 T00310027  RH  097%=      5-min Rain = 0
KMD1 080708Z 01011KT 03/03 A3017 RMK A01 T00300026  RH  097%=      5-min Rain = 0
KMD1 080709Z 02011KT 03/03 A3017 RMK A01 T00300026  RH  097%=      5-min Rain = 0
KMD1 080710Z 02013KT 03/03 A3017 RMK A01 T00290026  RH  098%=      5-min Rain = 0
KMD1 080711Z 02012KT 03/03 A3017 RMK A01 T00300026  RH  098%=      5-min Rain = 0
KMD1 080712Z 02011KT 03/03 A3017 RMK A01 T00290026  RH  098%=      5-min Rain = 0
KMD1 080713Z 02010KT 03/03 A3017 RMK A01 T00290026  RH  098%=      5-min Rain = 0
KMD1 080714Z 03011KT 03/03 A3017 RMK A01 T00290026  RH  098%=      5-min Rain = 0
KMD1 080715Z 03010KT 03/03 A3017 RMK A01 T00290026  RH  098%=      5-min Rain = 0
KMD1 080716Z 03009KT 03/03 A3017 RMK A01 T00290026  RH  098%=      5-min Rain = 0
KMD1 080717Z 03009KT 03/03 A3017 RMK A01 T00290026  RH  098%=      5-min Rain = 0
KMD1 080718Z 03009KT 03/03 A3017 RMK A01 T00290026  RH  098%=      5-min Rain = 0
KMD1 080719Z 02007KT 03/03 A3017 RMK A01 T00290026  RH  098%=      5-min Rain = 0
KMD1 080720Z 01010KT 03/03 A3017 RMK A01 T00290026  RH  098%=      5-min Rain = 0
KMD1 080721Z 02007KT 03/03 A3017 RMK A01 T00290026  RH  098%=      5-min Rain = 0
KMD1 080722Z 02007KT 03/03 A3017 RMK A01 T00290026  RH  098%=      5-min Rain = 0
KMD1 080723Z 01007KT 03/03 A3017 RMK A01 T00290026  RH  098%=      5-min Rain = 0
KMD1 080724Z 02009KT 03/03 A3017 RMK A01 T00290026  RH  098%=      5-min Rain = 0
KMD1 080725Z 02012KT 03/03 A3017 RMK A01 T00290026  RH  098%=      5-min Rain = 0
KMD1 080726Z 01012KT 03/03 A3017 RMK A01 T00280025  RH  098%=      5-min Rain = 0
KMD1 080727Z 01012KT 03/03 A3017 RMK A01 T00280025  RH  098%=      5-min Rain = 0
KMD1 080728Z 01011KT 03/02 A3018 RMK A01 T00280024  RH  098%=      5-min Rain = 0
KMD1 080729Z 01012KT 03/02 A3018 RMK A01 T00270024  RH  098%=      5-min Rain = 0
KMD1 080730Z 00010KT 03/02 A3018 RMK A01 T00270024  RH  098%=      5-min Rain = 0
KMD1 080731Z 02010KT 03/02 A3018 RMK A01 T00270024  RH  098%=      5-min Rain = 0
KMD1 080732Z 01011KT 03/02 A3017 RMK A01 T00270024  RH  098%=      5-min Rain = 0
KMD1 080733Z 02009KT 03/03 A3017 RMK A01 T00280025  RH  098%=      5-min Rain = 0
KMD1 080734Z 03010KT 03/02 A3017 RMK A01 T00270024  RH  098%=      5-min Rain = 0
KMD1 080735Z 03010KT 03/02 A3018 RMK A01 T00270024  RH  098%=      5-min Rain = 0
KMD1 080736Z 02011KT 03/02 A3018 RMK A01 T00270024  RH  098%=      5-min Rain = 0
KMD1 080737Z 02008KT 03/02 A3018 RMK A01 T00270024  RH  098%=      5-min Rain = 0
KMD1 080738Z 03011KT 03/02 A3018 RMK A01 T00270024  RH  098%=      5-min Rain = 0
KMD1 080739Z 03008KT 03/02 A3018 RMK A01 T00270024  RH  098%=      5-min Rain = 0
KMD1 080740Z 02007KT 03/02 A3018 RMK A01 T00270024  RH  098%=      5-min Rain = 0
KMD1 080741Z 01005KT 03/02 A3018 RMK A01 T00270024  RH  098%=      5-min Rain = 0
KMD1 080742Z 36006KT 03/02 A3019 RMK A01 T00270024  RH  098%=      5-min Rain = 0
KMD1 080743Z 00005KT 03/03 A3019 RMK A01 T00280025  RH  098%=      5-min Rain = 0
KMD1 080744Z 01007KT 03/03 A302 RMK A01 T00280025  RH  098%=      5-min Rain = 0
KMD1 080745Z 00007KT 03/03 A302 RMK A01 T00280025  RH  098%=      5-min Rain = 0
KMD1 080746Z 01006KT 03/02 A302 RMK A01 T00280024  RH  098%=      5-min Rain = 0
KMD1 080747Z 36009KT 03/03 A302 RMK A01 T00280025  RH  098%=      5-min Rain = 0
KMD1 080748Z 00008KT 03/02 A3019 RMK A01 T00280024  RH  098%=      5-min Rain = 0
KMD1 080749Z 01009KT 03/02 A3019 RMK A01 T00280024  RH  098%=      5-min Rain = 0
KMD1 080750Z 02008KT 03/02 A3019 RMK A01 T00280024  RH  098%=      5-min Rain = 0
KMD1 080751Z 01007KT 03/02 A3019 RMK A01 T00280024  RH  098%=      5-min Rain = 0
KMD1 080752Z 01008KT 03/02 A3019 RMK A01 T00280024  RH  098%=      5-min Rain = 0
KMD1 080753Z 01008KT 03/02 A3019 RMK A01 T00280024  RH  098%=      5-min Rain = 0
KMD1 080754Z 00007KT 03/02 A3019 RMK A01 T00280024  RH  098%=      5-min Rain = 0
KMD1 080755Z 00007KT 03/02 A3019 RMK A01 T00280024  RH  098%=      5-min Rain = 0
KMD1 080756Z 36008KT 03/02 A3019 RMK A01 T00280024  RH  098%=      5-min Rain = 0
KMD1 080757Z 00010KT 03/02 A3019 RMK A01 T00280024  RH  097%=      5-min Rain = 0
KMD1 080758Z 01008KT 03/02 A3019 RMK A01 T00280024  RH  097%=      5-min Rain = 0
KMD1 080759Z 01007KT 03/02 A3019 RMK A01 T00280024  RH  098%=      5-min Rain = 0
KMD1 080800Z 02006KT 03/02 A3019 RMK A01 T00280024  RH  098%=      5-min Rain = 0
KMD1 080801Z 01006KT 03/02 A3019 RMK A01 T00280024  RH  097%=      5-min Rain = 0
KMD1 080802Z 01007KT 03/03 A3019 RMK A01 T00280025  RH  097%=      5-min Rain = 0
KMD1 080803Z 03007KT 03/02 A3019 RMK A01 T00280024  RH  097%=      5-min Rain = 0
KMD1 080804Z 01007KT 03/02 A3019 RMK A01 T00280024  RH  097%=      5-min Rain = 0
KMD1 080805Z 02007KT 03/03 A3019 RMK A01 T00280025  RH  097%=      5-min Rain = 0
KMD1 080806Z 02010KT 03/02 A3019 RMK A01 T00280024  RH  097%=      5-min Rain = 0
KMD1 080807Z 02007KT 03/02 A3019 RMK A01 T00280024  RH  097%=      5-min Rain = 0
KMD1 080808Z 02008KT 03/02 A3019 RMK A01 T00280024  RH  097%=      5-min Rain = 0
KMD1 080809Z 01008KT 03/02 A3019 RMK A01 T00280024  RH  097%=      5-min Rain = 0
KMD1 080810Z 01009KT 03/02 A3019 RMK A01 T00280024  RH  097%=      5-min Rain = 0
KMD1 080811Z 01008KT 03/02 A3018 RMK A01 T00280024  RH  097%=      5-min Rain = 0
KMD1 080812Z 01008KT 03/02 A3018 RMK A01 T00280024  RH  097%=      5-min Rain = 0
KMD1 080813Z 01007KT 03/02 A3018 RMK A01 T00290024  RH  097%=      5-min Rain = 0
KMD1 080814Z 36006KT 03/02 A3018 RMK A01 T00290024  RH  097%=      5-min Rain = 0
KMD1 080815Z 01007KT 03/03 A3018 RMK A01 T00290025  RH  097%=      5-min Rain = 0
KMD1 080816Z 36007KT 03/02 A3018 RMK A01 T00290024  RH  097%=      5-min Rain = 0
KMD1 080817Z 00010KT 03/02 A3018 RMK A01 T00290024  RH  097%=      5-min Rain = 0
KMD1 080818Z 01006KT 03/02 A3018 RMK A01 T00290024  RH  097%=      5-min Rain = 0
KMD1 080819Z 01007KT 03/02 A3018 RMK A01 T00290024  RH  097%=      5-min Rain = 0
KMD1 080820Z 01009KT 03/02 A3018 RMK A01 T00290024  RH  097%=      5-min Rain = 0
KMD1 080821Z 01007KT 03/02 A3018 RMK A01 T00290024  RH  097%=      5-min Rain = 0
KMD1 080822Z 02008KT 03/03 A3018 RMK A01 T00290025  RH  097%=      5-min Rain = 0
KMD1 080823Z 01009KT 03/03 A3018 RMK A01 T00290025  RH  097%=      5-min Rain = 0
KMD1 080824Z 02009KT 03/03 A3018 RMK A01 T00290025  RH  097%=      5-min Rain = 0
KMD1 080825Z 02009KT 03/03 A3018 RMK A01 T00290025  RH  097%=      5-min Rain = 0
KMD1 080826Z 02010KT 03/03 A3018 RMK A01 T00290025  RH  097%=      5-min Rain = 0
KMD1 080827Z 02009KT 03/03 A3017 RMK A01 T00290025  RH  097%=      5-min Rain = 0
KMD1 080828Z 03009KT 03/03 A3017 RMK A01 T00290025  RH  097%=      5-min Rain = 0
KMD1 080829Z 02008KT 03/03 A3017 RMK A01 T00290025  RH  097%=      5-min Rain = 0
KMD1 080830Z 01008KT 03/03 A3017 RMK A01 T00290025  RH  097%=      5-min Rain = 0
KMD1 080831Z 01007KT 03/03 A3017 RMK A01 T00300025  RH  097%=      5-min Rain = 0
KMD1 080832Z 02006KT 03/03 A3017 RMK A01 T00300025  RH  097%=      5-min Rain = 0
KMD1 080833Z 02007KT 03/03 A3017 RMK A01 T00300025  RH  097%=      5-min Rain = 0
KMD1 080834Z 02007KT 03/03 A3016 RMK A01 T00300025  RH  097%=      5-min Rain = 0
KMD1 080835Z 01006KT 03/03 A3016 RMK A01 T00300026  RH  097%=      5-min Rain = 0
KMD1 080836Z 01007KT 03/03 A3017 RMK A01 T00300026  RH  097%=      5-min Rain = 0
KMD1 080837Z 01011KT 03/03 A3017 RMK A01 T00300026  RH  097%=      5-min Rain = 0
KMD1 080838Z 01008KT 03/03 A3017 RMK A01 T00300026  RH  097%=      5-min Rain = 0
KMD1 080839Z 00010KT 03/03 A3017 RMK A01 T00300026  RH  097%=      5-min Rain = 0
KMD1 080840Z 00007KT 03/03 A3017 RMK A01 T00300026  RH  097%=      5-min Rain = 0
KMD1 080841Z 01007KT 03/03 A3017 RMK A01 T00300026  RH  097%=      5-min Rain = 0
KMD1 080842Z 01008KT 03/03 A3017 RMK A01 T00300026  RH  097%=      5-min Rain = 0
KMD1 080843Z 01007KT 03/03 A3016 RMK A01 T00300026  RH  097%=      5-min Rain = 0
KMD1 080844Z 02008KT 03/03 A3016 RMK A01 T00300026  RH  097%=      5-min Rain = 0
KMD1 080845Z 02009KT 03/03 A3016 RMK A01 T00300026  RH  097%=      5-min Rain = 0
KMD1 080846Z 02010KT 03/03 A3016 RMK A01 T00300026  RH  097%=      5-min Rain = 0
KMD1 080847Z 01009KT 03/03 A3016 RMK A01 T00300027  RH  097%=      5-min Rain = 0
KMD1 080848Z 01011KT 03/03 A3016 RMK A01 T00300026  RH  097%=      5-min Rain = 0
KMD1 080849Z 01010KT 03/03 A3016 RMK A01 T00300026  RH  097%=      5-min Rain = 0
KMD1 080850Z 02009KT 03/03 A3016 RMK A01 T00300027  RH  097%=      5-min Rain = 0
KMD1 080851Z 01008KT 03/03 A3016 RMK A01 T00300026  RH  097%=      5-min Rain = 0
KMD1 080852Z 02008KT 03/03 A3016 RMK A01 T00300026  RH  097%=      5-min Rain = 0
KMD1 080853Z 01011KT 03/03 A3016 RMK A01 T00310027  RH  098%=      5-min Rain = 0
KMD1 080854Z 01010KT 03/03 A3016 RMK A01 T00300027  RH  097%=      5-min Rain = 0
KMD1 080855Z 01008KT 03/03 A3016 RMK A01 T00310027  RH  097%=      5-min Rain = 0
KMD1 080856Z 02009KT 03/03 A3016 RMK A01 T00310027  RH  097%=      5-min Rain = 0
KMD1 080857Z 01009KT 03/03 A3016 RMK A01 T00310027  RH  097%=      5-min Rain = 0
KMD1 080858Z 01007KT 03/03 A3016 RMK A01 T00300027  RH  097%=      5-min Rain = 0
KMD1 080859Z 02007KT 03/03 A3016 RMK A01 T00300027  RH  098%=      5-min Rain = 0
KMD1 080900Z 02010KT 03/03 A3016 RMK A01 T00310027  RH  098%=      5-min Rain = 0
KMD1 080901Z 01008KT 03/03 A3016 RMK A01 T00300027  RH  097%=      5-min Rain = 0
KMD1 080902Z 01009KT 03/03 A3016 RMK A01 T00310027  RH  097%=      5-min Rain = 0
KMD1 080903Z 01007KT 03/03 A3016 RMK A01 T00310027  RH  097%=      5-min Rain = 0
KMD1 080904Z 01006KT 03/03 A3016 RMK A01 T00310027  RH  097%=      5-min Rain = 0
KMD1 080905Z 01008KT 03/03 A3016 RMK A01 T00310027  RH  098%=      5-min Rain = 0
KMD1 080906Z 01007KT 03/03 A3016 RMK A01 T00310027  RH  098%=      5-min Rain = 0
KMD1 080907Z 01008KT 03/03 A3016 RMK A01 T00310027  RH  098%=      5-min Rain = 0
KMD1 080908Z 01009KT 03/03 A3016 RMK A01 T00310027  RH  098%=      5-min Rain = 0
KMD1 080909Z 00009KT 03/03 A3016 RMK A01 T00310027  RH  097%=      5-min Rain = 0
KMD1 080910Z 01008KT 03/03 A3016 RMK A01 T00310027  RH  097%=      5-min Rain = 0
KMD1 080911Z 01009KT 03/03 A3016 RMK A01 T00310027  RH  097%=      5-min Rain = 0
KMD1 080912Z 01007KT 03/03 A3016 RMK A01 T00310027  RH  097%=      5-min Rain = 0
KMD1 080913Z 01007KT 03/03 A3016 RMK A01 T00310027  RH  097%=      5-min Rain = 0
KMD1 080914Z 01009KT 03/03 A3016 RMK A01 T00310027  RH  097%=      5-min Rain = 0
KMD1 080915Z 01008KT 03/03 A3016 RMK A01 T00310027  RH  097%=      5-min Rain = 0
KMD1 080916Z 02008KT 03/03 A3016 RMK A01 T00310027  RH  097%=      5-min Rain = 0
KMD1 080917Z 01009KT 03/03 A3016 RMK A01 T00310027  RH  097%=      5-min Rain = 0
KMD1 080918Z 01010KT 03/03 A3016 RMK A01 T00310027  RH  097%=      5-min Rain = 0
KMD1 080919Z 02009KT 03/03 A3016 RMK A01 T00310026  RH  097%=      5-min Rain = 0
KMD1 080920Z 02008KT 03/03 A3016 RMK A01 T00310026  RH  097%=      5-min Rain = 0
KMD1 080921Z 01009KT 03/03 A3016 RMK A01 T00310026  RH  097%=      5-min Rain = 0
KMD1 080922Z 02007KT 03/03 A3016 RMK A01 T00300026  RH  097%=      5-min Rain = 0
KMD1 080923Z 02009KT 03/03 A3016 RMK A01 T00310026  RH  097%=      5-min Rain = 0
KMD1 080924Z 01008KT 03/03 A3017 RMK A01 T00310026  RH  097%=      5-min Rain = 0
KMD1 080925Z 02006KT 03/03 A3017 RMK A01 T00310026  RH  096%=      5-min Rain = 0
KMD1 080926Z 03007KT 03/03 A3017 RMK A01 T00310026  RH  096%=      5-min Rain = 0
KMD1 080927Z 02006KT 03/03 A3017 RMK A01 T00310026  RH  096%=      5-min Rain = 0
KMD1 080928Z 02005KT 03/03 A3017 RMK A01 T00310026  RH  097%=      5-min Rain = 0
KMD1 080929Z 02006KT 03/03 A3017 RMK A01 T00310026  RH  096%=      5-min Rain = 0
KMD1 080930Z 02006KT 03/03 A3017 RMK A01 T00310026  RH  096%=      5-min Rain = 0
KMD1 080931Z 02004KT 03/03 A3017 RMK A01 T00310026  RH  096%=      5-min Rain = 0
KMD1 080932Z 00006KT 03/03 A3017 RMK A01 T00310026  RH  096%=      5-min Rain = 0
KMD1 080933Z 00008KT 03/03 A3017 RMK A01 T00310026  RH  096%=      5-min Rain = 0
KMD1 080934Z 35007KT 03/03 A3017 RMK A01 T00310026  RH  096%=      5-min Rain = 0
KMD1 080935Z 36007KT 03/03 A3017 RMK A01 T00310025  RH  096%=      5-min Rain = 0
KMD1 080936Z 00007KT 03/03 A3017 RMK A01 T00310025  RH  096%=      5-min Rain = 0
KMD1 080937Z 01008KT 03/03 A3017 RMK A01 T00310025  RH  096%=      5-min Rain = 0
KMD1 080938Z 01006KT 03/03 A3017 RMK A01 T00310025  RH  096%=      5-min Rain = 0
KMD1 080939Z 01009KT 03/03 A3017 RMK A01 T00300025  RH  096%=      5-min Rain = 0
KMD1 080940Z 01009KT 03/03 A3017 RMK A01 T00300025  RH  096%=      5-min Rain = 0
KMD1 080941Z 01010KT 03/03 A3017 RMK A01 T00310025  RH  096%=      5-min Rain = 0
KMD1 080942Z 01008KT 03/02 A3017 RMK A01 T00300024  RH  096%=      5-min Rain = 0
KMD1 080943Z 01008KT 03/03 A3017 RMK A01 T00300025  RH  096%=      5-min Rain = 0
KMD1 080944Z 01008KT 03/03 A3017 RMK A01 T00300025  RH  096%=      5-min Rain = 0
KMD1 080945Z 02009KT 03/03 A3017 RMK A01 T00300025  RH  096%=      5-min Rain = 0
KMD1 080946Z 00008KT 03/03 A3017 RMK A01 T00300025  RH  096%=      5-min Rain = 0
KMD1 080947Z 00010KT 03/02 A3017 RMK A01 T00300024  RH  096%=      5-min Rain = 0
KMD1 080948Z 01010KT 03/02 A3017 RMK A01 T00300024  RH  096%=      5-min Rain = 0
KMD1 080949Z 01011KT 03/02 A3017 RMK A01 T00300024  RH  096%=      5-min Rain = 0
KMD1 080950Z 01010KT 03/02 A3017 RMK A01 T00300024  RH  096%=      5-min Rain = 0
KMD1 080951Z 02010KT 03/02 A3017 RMK A01 T00290023  RH  096%=      5-min Rain = 0.01
KMD1 080952Z 02008KT 03/02 A3017 RMK A01 T00290023  RH  096%=      5-min Rain = 0
KMD1 080953Z 02010KT 03/02 A3017 RMK A01 T00290024  RH  096%=      5-min Rain = 0
KMD1 080954Z 01008KT 03/02 A3017 RMK A01 T00290023  RH  096%=      5-min Rain = 0
KMD1 080955Z 02007KT 03/02 A3017 RMK A01 T00290024  RH  096%=      5-min Rain = 0
KMD1 080956Z 01009KT 03/02 A3017 RMK A01 T00290024  RH  096%=      5-min Rain = 0
KMD1 080957Z 00009KT 03/02 A3017 RMK A01 T00290024  RH  096%=      5-min Rain = 0
KMD1 080958Z 01006KT 03/02 A3017 RMK A01 T00290024  RH  096%=      5-min Rain = 0
KMD1 080959Z 01006KT 03/02 A3017 RMK A01 T00290024  RH  097%=      5-min Rain = 0
KMD1 081000Z 01007KT 03/02 A3017 RMK A01 T00290024  RH  097%=      5-min Rain = 0
KMD1 081001Z 01006KT 03/02 A3017 RMK A01 T00290024  RH  097%=      5-min Rain = 0
KMD1 081002Z 01007KT 03/02 A3017 RMK A01 T00290024  RH  097%=      5-min Rain = 0
KMD1 081003Z 01006KT 03/03 A3017 RMK A01 T00290025  RH  097%=      5-min Rain = 0
KMD1 081004Z 01006KT 03/03 A3017 RMK A01 T00290025  RH  097%=      5-min Rain = 0
KMD1 081005Z 01005KT 03/03 A3017 RMK A01 T00290025  RH  097%=      5-min Rain = 0
KMD1 081006Z 01006KT 03/03 A3017 RMK A01 T00290025  RH  097%=      5-min Rain = 0.01
KMD1 081007Z 01004KT 03/03 A3017 RMK A01 T00290025  RH  097%=      5-min Rain = 0
KMD1 081008Z 01004KT 03/03 A3017 RMK A01 T00290025  RH  097%=      5-min Rain = 0
KMD1 081009Z 01004KT 03/03 A3017 RMK A01 T00290026  RH  097%=      5-min Rain = 0
KMD1 081010Z 00004KT 03/03 A3017 RMK A01 T00290026  RH  098%=      5-min Rain = 0
KMD1 081011Z 36004KT 03/03 A3017 RMK A01 T00290026  RH  098%=      5-min Rain = 0
KMD1 081012Z 35005KT 03/03 A3017 RMK A01 T00290026  RH  098%=      5-min Rain = 0
KMD1 081013Z 01004KT 03/03 A3017 RMK A01 T00290026  RH  098%=      5-min Rain = 0
KMD1 081014Z 36003KT 03/03 A3017 RMK A01 T00290026  RH  098%=      5-min Rain = 0
KMD1 081015Z 01005KT 03/03 A3017 RMK A01 T00290026  RH  098%=      5-min Rain = 0
KMD1 081016Z 01006KT 03/03 A3017 RMK A01 T00290026  RH  098%=      5-min Rain = 0
KMD1 081017Z 01005KT 03/03 A3017 RMK A01 T00290026  RH  098%=      5-min Rain = 0
KMD1 081018Z 02007KT 03/03 A3017 RMK A01 T00290026  RH  098%=      5-min Rain = 0
KMD1 081019Z 01006KT 03/03 A3017 RMK A01 T00290026  RH  098%=      5-min Rain = 0
KMD1 081020Z 02007KT 03/03 A3017 RMK A01 T00300026  RH  098%=      5-min Rain = 0.01
KMD1 081021Z 01006KT 03/03 A3017 RMK A01 T00300026  RH  098%=      5-min Rain = 0
KMD1 081022Z 01005KT 03/03 A3017 RMK A01 T00290026  RH  098%=      5-min Rain = 0
KMD1 081023Z 00005KT 03/03 A3017 RMK A01 T00300027  RH  098%=      5-min Rain = 0
KMD1 081024Z 01005KT 03/03 A3017 RMK A01 T00300026  RH  098%=      5-min Rain = 0
KMD1 081025Z 01004KT 03/03 A3017 RMK A01 T00300027  RH  098%=      5-min Rain = 0
KMD1 081026Z 01005KT 03/03 A3017 RMK A01 T00290026  RH  098%=      5-min Rain = 0
KMD1 081027Z 36005KT 03/03 A3017 RMK A01 T00290026  RH  098%=      5-min Rain = 0
KMD1 081028Z 00005KT 03/03 A3017 RMK A01 T00300027  RH  098%=      5-min Rain = 0
KMD1 081029Z 35004KT 03/03 A3017 RMK A01 T00300027  RH  098%=      5-min Rain = 0
KMD1 081030Z 35004KT 03/03 A3017 RMK A01 T00300027  RH  098%=      5-min Rain = 0
KMD1 081031Z 02006KT 03/03 A3017 RMK A01 T00300027  RH  098%=      5-min Rain = 0
KMD1 081032Z 36005KT 03/03 A3017 RMK A01 T00300027  RH  098%=      5-min Rain = 0
KMD1 081033Z 01005KT 03/03 A3017 RMK A01 T00290027  RH  098%=      5-min Rain = 0
KMD1 081034Z 01005KT 03/03 A3017 RMK A01 T00300027  RH  098%=      5-min Rain = 0
KMD1 081035Z 01004KT 03/03 A3017 RMK A01 T00290027  RH  098%=      5-min Rain = 0
KMD1 081036Z 01004KT 03/03 A3017 RMK A01 T00300027  RH  098%=      5-min Rain = 0
KMD1 081037Z 00006KT 03/03 A3017 RMK A01 T00300027  RH  098%=      5-min Rain = 0
KMD1 081038Z 01006KT 03/03 A3017 RMK A01 T00300027  RH  098%=      5-min Rain = 0
KMD1 081039Z 01006KT 03/03 A3017 RMK A01 T00290027  RH  098%=      5-min Rain = 0
KMD1 081040Z 01007KT 03/03 A3016 RMK A01 T00300027  RH  098%=      5-min Rain = 0
KMD1 081041Z 01006KT 03/03 A3016 RMK A01 T00300027  RH  098%=      5-min Rain = 0
KMD1 081042Z 01006KT 03/03 A3017 RMK A01 T00290026  RH  098%=      5-min Rain = 0
KMD1 081043Z 01006KT 03/03 A3017 RMK A01 T00300027  RH  098%=      5-min Rain = 0
KMD1 081044Z 00005KT 03/03 A3017 RMK A01 T00300027  RH  098%=      5-min Rain = 0
KMD1 081045Z 00005KT 03/03 A3017 RMK A01 T00300027  RH  098%=      5-min Rain = 0
KMD1 081046Z 00004KT 03/03 A3017 RMK A01 T00300027  RH  098%=      5-min Rain = 0
KMD1 081047Z 35006KT 03/03 A3017 RMK A01 T00300027  RH  098%=      5-min Rain = 0
KMD1 081048Z 35005KT 03/03 A3017 RMK A01 T00300027  RH  098%=      5-min Rain = 0
KMD1 081049Z 35006KT 03/03 A3017 RMK A01 T00300027  RH  098%=      5-min Rain = 0
KMD1 081050Z 34005KT 03/03 A3017 RMK A01 T00300027  RH  098%=      5-min Rain = 0
KMD1 081051Z 34004KT 03/03 A3017 RMK A01 T00290027  RH  098%=      5-min Rain = 0
KMD1 081052Z 35004KT 03/03 A3017 RMK A01 T00300027  RH  098%=      5-min Rain = 0
KMD1 081053Z 34005KT 03/03 A3017 RMK A01 T00300028  RH  098%=      5-min Rain = 0
KMD1 081054Z 34005KT 03/03 A3017 RMK A01 T00300027  RH  098%=      5-min Rain = 0
KMD1 081055Z 34005KT 03/03 A3017 RMK A01 T00300028  RH  098%=      5-min Rain = 0
KMD1 081056Z 32005KT 03/03 A3017 RMK A01 T00300027  RH  098%=      5-min Rain = 0
KMD1 081057Z 34004KT 03/03 A3017 RMK A01 T00300028  RH  098%=      5-min Rain = 0
KMD1 081058Z 33006KT 03/03 A3017 RMK A01 T00300028  RH  098%=      5-min Rain = 0
KMD1 081059Z 34007KT 03/03 A3017 RMK A01 T00300028  RH  098%=      5-min Rain = 0
KMD1 081100Z 33007KT 03/03 A3017 RMK A01 T00300028  RH  098%=      5-min Rain = 0
KMD1 081101Z 34006KT 03/03 A3017 RMK A01 T00300028  RH  098%=      5-min Rain = 0
KMD1 081102Z 34007KT 03/03 A3017 RMK A01 T00300028  RH  099%=      5-min Rain = 0
KMD1 081103Z 35007KT 03/03 A3017 RMK A01 T00300028  RH  099%=      5-min Rain = 0
KMD1 081104Z 35007KT 03/03 A3017 RMK A01 T00300028  RH  099%=      5-min Rain = 0
KMD1 081105Z 35010KT 03/03 A3017 RMK A01 T00300028  RH  099%=      5-min Rain = 0
KMD1 081106Z 35009KT 03/03 A3016 RMK A01 T00300028  RH  098%=      5-min Rain = 0
KMD1 081107Z 35009KT 03/03 A3016 RMK A01 T00300028  RH  098%=      5-min Rain = 0
KMD1 081108Z 35006KT 03/03 A3016 RMK A01 T00300027  RH  098%=      5-min Rain = 0
KMD1 081109Z 34008KT 03/03 A3016 RMK A01 T00300027  RH  099%=      5-min Rain = 0
KMD1 081110Z 36009KT 03/03 A3017 RMK A01 T00300027  RH  098%=      5-min Rain = 0
KMD1 081111Z 35008KT 03/03 A3017 RMK A01 T00300027  RH  098%=      5-min Rain = 0.01
KMD1 081112Z 35008KT 03/03 A3017 RMK A01 T00300027  RH  098%=      5-min Rain = 0
KMD1 081113Z 35007KT 03/03 A3017 RMK A01 T00300027  RH  098%=      5-min Rain = 0
KMD1 081114Z 34007KT 03/03 A3017 RMK A01 T00300027  RH  098%=      5-min Rain = 0
KMD1 081115Z 34008KT 03/03 A3017 RMK A01 T00290027  RH  098%=      5-min Rain = 0
KMD1 081116Z 33005KT 03/03 A3017 RMK A01 T00300027  RH  098%=      5-min Rain = 0
KMD1 081117Z 34005KT 03/03 A3017 RMK A01 T00300027  RH  098%=      5-min Rain = 0
KMD1 081118Z 33005KT 03/03 A3017 RMK A01 T00300027  RH  098%=      5-min Rain = 0
KMD1 081119Z 33007KT 03/03 A3017 RMK A01 T00300027  RH  098%=      5-min Rain = 0
KMD1 081120Z 33007KT 03/03 A3017 RMK A01 T00290027  RH  098%=      5-min Rain = 0
KMD1 081121Z 33006KT 03/03 A3017 RMK A01 T00290027  RH  098%=      5-min Rain = 0
KMD1 081122Z 31005KT 03/03 A3018 RMK A01 T00290026  RH  098%=      5-min Rain = 0
KMD1 081123Z 31006KT 03/03 A3018 RMK A01 T00290027  RH  098%=      5-min Rain = 0
KMD1 081124Z 32006KT 03/03 A3018 RMK A01 T00290027  RH  099%=      5-min Rain = 0
KMD1 081125Z 32006KT 03/03 A3018 RMK A01 T00290027  RH  098%=      5-min Rain = 0
KMD1 081126Z 33007KT 03/03 A3018 RMK A01 T00290027  RH  098%=      5-min Rain = 0
KMD1 081127Z 33009KT 03/03 A3018 RMK A01 T00290027  RH  098%=      5-min Rain = 0
KMD1 081128Z 33009KT 03/03 A3018 RMK A01 T00290026  RH  098%=      5-min Rain = 0
KMD1 081129Z 34006KT 03/03 A3018 RMK A01 T00280026  RH  098%=      5-min Rain = 0
KMD1 081130Z 35009KT 03/03 A3018 RMK A01 T00280026  RH  098%=      5-min Rain = 0
KMD1 081131Z 00010KT 03/03 A3018 RMK A01 T00280025  RH  098%=      5-min Rain = 0
KMD1 081132Z 35008KT 03/03 A3018 RMK A01 T00280025  RH  098%=      5-min Rain = 0
KMD1 081133Z 35009KT 03/03 A3018 RMK A01 T00280025  RH  098%=      5-min Rain = 0
KMD1 081134Z 36007KT 03/03 A3018 RMK A01 T00280025  RH  098%=      5-min Rain = 0
KMD1 081135Z 36008KT 03/03 A3018 RMK A01 T00280025  RH  098%=      5-min Rain = 0
KMD1 081136Z 35006KT 03/03 A3018 RMK A01 T00280025  RH  098%=      5-min Rain = 0.01
KMD1 081137Z 34006KT 03/03 A3018 RMK A01 T00280025  RH  098%=      5-min Rain = 0
KMD1 081138Z 34006KT 03/03 A3018 RMK A01 T00280026  RH  098%=      5-min Rain = 0
KMD1 081139Z 34007KT 03/03 A3018 RMK A01 T00280026  RH  098%=      5-min Rain = 0
KMD1 081140Z 35006KT 03/03 A3018 RMK A01 T00280026  RH  098%=      5-min Rain = 0
KMD1 081141Z 34009KT 03/03 A3018 RMK A01 T00280026  RH  098%=      5-min Rain = 0
KMD1 081142Z 35008KT 03/03 A3018 RMK A01 T00280025  RH  098%=      5-min Rain = 0
KMD1 081143Z 34008KT 03/03 A3018 RMK A01 T00280025  RH  098%=      5-min Rain = 0
KMD1 081144Z 34007KT 03/02 A3018 RMK A01 T00270024  RH  098%=      5-min Rain = 0
KMD1 081145Z 34009KT 03/02 A3018 RMK A01 T00270024  RH  098%=      5-min Rain = 0
KMD1 081146Z 33008KT 03/02 A3018 RMK A01 T00260023  RH  098%=      5-min Rain = 0
KMD1 081147Z 33006KT 03/02 A3018 RMK A01 T00260023  RH  098%=      5-min Rain = 0
KMD1 081148Z 35008KT 03/02 A3018 RMK A01 T00260024  RH  098%=      5-min Rain = 0
KMD1 081149Z 35007KT 03/02 A3018 RMK A01 T00260023  RH  098%=      5-min Rain = 0
KMD1 081150Z 34007KT 03/02 A3018 RMK A01 T00260023  RH  098%=      5-min Rain = 0
KMD1 081151Z 33008KT 03/02 A3018 RMK A01 T00260023  RH  098%=      5-min Rain = 0
KMD1 081152Z 34008KT 03/02 A3018 RMK A01 T00250023  RH  098%=      5-min Rain = 0.01
KMD1 081153Z 33006KT 03/02 A3018 RMK A01 T00250023  RH  098%=      5-min Rain = 0
KMD1 081154Z 33006KT 03/02 A3018 RMK A01 T00250022  RH  098%=      5-min Rain = 0
KMD1 081155Z 32005KT 03/02 A3018 RMK A01 T00250023  RH  098%=      5-min Rain = 0
KMD1 081156Z 33006KT 03/02 A3018 RMK A01 T00250023  RH  098%=      5-min Rain = 0
KMD1 081157Z 33006KT 03/02 A3018 RMK A01 T00250022  RH  098%=      5-min Rain = 0
KMD1 081158Z 34006KT 03/02 A3019 RMK A01 T00250022  RH  098%=      5-min Rain = 0
KMD1 081159Z 34007KT 03/02 A3019 RMK A01 T00250022  RH  098%=      5-min Rain = 0
KMD1 081200Z 34008KT 02/02 A3019 RMK A01 T00240022  RH  098%=      5-min Rain = 0
KMD1 081201Z 35008KT 02/02 A3019 RMK A01 T00240022  RH  098%=      5-min Rain = 0
KMD1 081202Z 34007KT 02/02 A3019 RMK A01 T00240022  RH  098%=      5-min Rain = 0
KMD1 081203Z 35007KT 02/02 A3019 RMK A01 T00240022  RH  098%=      5-min Rain = 0
KMD1 081204Z 34008KT 02/02 A3019 RMK A01 T00240022  RH  098%=      5-min Rain = 0
KMD1 081205Z 33008KT 02/02 A3019 RMK A01 T00240022  RH  098%=      5-min Rain = 0
KMD1 081206Z 34006KT 02/02 A3019 RMK A01 T00240022  RH  098%=      5-min Rain = 0
KMD1 081207Z 33006KT 02/02 A3019 RMK A01 T00240022  RH  098%=      5-min Rain = 0
KMD1 081208Z 33007KT 02/02 A3019 RMK A01 T00240022  RH  098%=      5-min Rain = 0
KMD1 081209Z 34010KT 02/02 A3019 RMK A01 T00240022  RH  098%=      5-min Rain = 0
KMD1 081210Z 34008KT 02/02 A3019 RMK A01 T00240021  RH  098%=      5-min Rain = 0
KMD1 081211Z 35007KT 02/02 A3019 RMK A01 T00240021  RH  098%=      5-min Rain = 0
KMD1 081212Z 35007KT 02/02 A3019 RMK A01 T00240021  RH  098%=      5-min Rain = 0
KMD1 081213Z 35008KT 02/02 A3019 RMK A01 T00240021  RH  098%=      5-min Rain = 0
KMD1 081214Z 35007KT 02/02 A3019 RMK A01 T00240021  RH  098%=      5-min Rain = 0
KMD1 081215Z 35006KT 02/02 A3019 RMK A01 T00240021  RH  098%=      5-min Rain = 0
KMD1 081216Z 35007KT 02/02 A3019 RMK A01 T00240022  RH  098%=      5-min Rain = 0
KMD1 081217Z 35007KT 02/02 A3019 RMK A01 T00240022  RH  098%=      5-min Rain = 0
KMD1 081218Z 35007KT 02/02 A3019 RMK A01 T00240022  RH  098%=      5-min Rain = 0
KMD1 081219Z 00006KT 02/02 A3019 RMK A01 T00240022  RH  098%=      5-min Rain = 0
KMD1 081220Z 35007KT 02/02 A3019 RMK A01 T00240022  RH  098%=      5-min Rain = 0
KMD1 081221Z 35006KT 02/02 A3019 RMK A01 T00240022  RH  098%=      5-min Rain = 0
KMD1 081222Z 36007KT 02/02 A3019 RMK A01 T00240022  RH  098%=      5-min Rain = 0
KMD1 081223Z 00005KT 02/02 A3019 RMK A01 T00240021  RH  098%=      5-min Rain = 0
KMD1 081224Z 35008KT 02/02 A3019 RMK A01 T00240022  RH  098%=      5-min Rain = 0
KMD1 081225Z 35008KT 02/02 A3019 RMK A01 T00240021  RH  098%=      5-min Rain = 0
KMD1 081226Z 35008KT 02/02 A3019 RMK A01 T00240021  RH  098%=      5-min Rain = 0
KMD1 081227Z 35007KT 02/02 A3019 RMK A01 T00240021  RH  098%=      5-min Rain = 0
KMD1 081228Z 35008KT 02/02 A3019 RMK A01 T00240021  RH  098%=      5-min Rain = 0
KMD1 081229Z 35008KT 02/02 A3019 RMK A01 T00240021  RH  098%=      5-min Rain = 0
KMD1 081230Z 34008KT 02/02 A3019 RMK A01 T00240021  RH  098%=      5-min Rain = 0
KMD1 081231Z 34006KT 02/02 A3019 RMK A01 T00240021  RH  098%=      5-min Rain = 0
KMD1 081232Z 34007KT 02/02 A3019 RMK A01 T00240021  RH  098%=      5-min Rain = 0.01
KMD1 081233Z 34007KT 02/02 A3019 RMK A01 T00240021  RH  098%=      5-min Rain = 0
KMD1 081234Z 32007KT 02/02 A302 RMK A01 T00240021  RH  098%=      5-min Rain = 0
KMD1 081235Z 33008KT 02/02 A302 RMK A01 T00240021  RH  098%=      5-min Rain = 0
KMD1 081236Z 31007KT 02/02 A302 RMK A01 T00240021  RH  098%=      5-min Rain = 0
KMD1 081237Z 32008KT 02/02 A302 RMK A01 T00240021  RH  098%=      5-min Rain = 0
KMD1 081238Z 33008KT 02/02 A302 RMK A01 T00240021  RH  098%=      5-min Rain = 0
KMD1 081239Z 33009KT 02/02 A302 RMK A01 T00240021  RH  098%=      5-min Rain = 0
KMD1 081240Z 34011KT 02/02 A302 RMK A01 T00230021  RH  098%=      5-min Rain = 0.01
KMD1 081241Z 34010KT 02/02 A302 RMK A01 T00230020  RH  098%=      5-min Rain = 0
KMD1 081242Z 34010KT 02/02 A302 RMK A01 T00230020  RH  098%=      5-min Rain = 0
KMD1 081243Z 33009KT 02/02 A302 RMK A01 T00230020  RH  098%=      5-min Rain = 0
KMD1 081244Z 34007KT 02/02 A302 RMK A01 T00230020  RH  098%=      5-min Rain = 0
KMD1 081245Z 33006KT 02/02 A302 RMK A01 T00230020  RH  098%=      5-min Rain = 0
KMD1 081246Z 33006KT 02/02 A302 RMK A01 T00230020  RH  098%=      5-min Rain = 0
KMD1 081247Z 34007KT 02/02 A302 RMK A01 T00230020  RH  098%=      5-min Rain = 0
KMD1 081248Z 33006KT 02/02 A302 RMK A01 T00230020  RH  098%=      5-min Rain = 0
KMD1 081249Z 34007KT 02/02 A302 RMK A01 T00230020  RH  098%=      5-min Rain = 0
KMD1 081250Z 33010KT 02/02 A302 RMK A01 T00230020  RH  098%=      5-min Rain = 0
KMD1 081251Z 34010KT 02/02 A302 RMK A01 T00230020  RH  098%=      5-min Rain = 0
KMD1 081252Z 34011KT 02/02 A302 RMK A01 T00230020  RH  098%=      5-min Rain = 0
KMD1 081253Z 34008KT 02/02 A302 RMK A01 T00230020  RH  098%=      5-min Rain = 0
KMD1 081254Z 33009KT 02/02 A302 RMK A01 T00230020  RH  098%=      5-min Rain = 0
KMD1 081255Z 33008KT 02/02 A302 RMK A01 T00230020  RH  098%=      5-min Rain = 0
KMD1 081256Z 34009KT 02/02 A302 RMK A01 T00230020  RH  098%=      5-min Rain = 0.01
KMD1 081257Z 34009KT 02/02 A302 RMK A01 T00230020  RH  098%=      5-min Rain = 0
KMD1 081258Z 34010KT 02/02 A302 RMK A01 T00230020  RH  098%=      5-min Rain = 0
KMD1 081259Z 34007KT 02/02 A302 RMK A01 T00220019  RH  098%=      5-min Rain = 0
KMD1 081300Z 34010KT 02/02 A3021 RMK A01 T00220020  RH  098%=      5-min Rain = 0
KMD1 081301Z 34008KT 02/02 A3021 RMK A01 T00220019  RH  098%=      5-min Rain = 0
KMD1 081302Z 32010KT 02/02 A3021 RMK A01 T00220019  RH  098%=      5-min Rain = 0
KMD1 081303Z 34011KT 02/02 A3021 RMK A01 T00220019  RH  098%=      5-min Rain = 0
KMD1 081304Z 33007KT 02/02 A3021 RMK A01 T00220019  RH  098%=      5-min Rain = 0
KMD1 081305Z 33007KT 02/02 A3021 RMK A01 T00220019  RH  098%=      5-min Rain = 0
KMD1 081306Z 34008KT 02/02 A3021 RMK A01 T00220019  RH  098%=      5-min Rain = 0
KMD1 081307Z 32010KT 02/02 A3021 RMK A01 T00220019  RH  098%=      5-min Rain = 0
KMD1 081308Z 33009KT 02/02 A3021 RMK A01 T00220019  RH  098%=      5-min Rain = 0
KMD1 081309Z 33007KT 02/02 A3021 RMK A01 T00220018  RH  098%=      5-min Rain = 0.01
KMD1 081310Z 33008KT 02/02 A3021 RMK A01 T00220019  RH  098%=      5-min Rain = 0
KMD1 081311Z 33008KT 02/02 A3021 RMK A01 T00220018  RH  098%=      5-min Rain = 0
KMD1 081312Z 33008KT 02/02 A3021 RMK A01 T00220018  RH  098%=      5-min Rain = 0
KMD1 081313Z 34009KT 02/02 A3021 RMK A01 T00220019  RH  098%=      5-min Rain = 0
KMD1 081314Z 33008KT 02/02 A3021 RMK A01 T00220018  RH  098%=      5-min Rain = 0
KMD1 081315Z 33007G13KT 02/02 A3021 RMK A01 T00220018  RH  098%=      5-min Rain = 0
KMD1 081316Z 33009KT 02/02 A3021 RMK A01 T00210018  RH  098%=      5-min Rain = 0
KMD1 081317Z 33012KT 02/02 A3021 RMK A01 T00210018  RH  098%=      5-min Rain = 0
KMD1 081318Z 33008KT 02/02 A3021 RMK A01 T00210017  RH  098%=      5-min Rain = 0
KMD1 081319Z 33010KT 02/02 A3021 RMK A01 T00210017  RH  098%=      5-min Rain = 0
KMD1 081320Z 33009KT 02/02 A3021 RMK A01 T00210017  RH  098%=      5-min Rain = 0.01
KMD1 081321Z 34009KT 02/02 A3021 RMK A01 T00200017  RH  098%=      5-min Rain = 0
KMD1 081322Z 34009KT 02/02 A3021 RMK A01 T00200017  RH  098%=      5-min Rain = 0
KMD1 081323Z 33009KT 02/02 A3021 RMK A01 T00210017  RH  098%=      5-min Rain = 0
KMD1 081324Z 33008KT 02/02 A3021 RMK A01 T00200017  RH  098%=      5-min Rain = 0
KMD1 081325Z 34009KT 02/02 A3021 RMK A01 T00200016  RH  098%=      5-min Rain = 0
KMD1 081326Z 34010KT 02/02 A3021 RMK A01 T00200017  RH  098%=      5-min Rain = 0
KMD1 081327Z 34010KT 02/02 A3021 RMK A01 T00200017  RH  098%=      5-min Rain = 0
KMD1 081328Z 34010KT 02/02 A3021 RMK A01 T00200017  RH  098%=      5-min Rain = 0.01
KMD1 081329Z 35008KT 02/02 A3021 RMK A01 T00200016  RH  098%=      5-min Rain = 0
KMD1 081330Z 34007KT 02/02 A3022 RMK A01 T00200017  RH  098%=      5-min Rain = 0
KMD1 081331Z 34006KT 02/02 A3022 RMK A01 T00200017  RH  098%=      5-min Rain = 0
KMD1 081332Z 34008KT 02/02 A3022 RMK A01 T00200017  RH  098%=      5-min Rain = 0
KMD1 081333Z 34008KT 02/02 A3022 RMK A01 T00200017  RH  098%=      5-min Rain = 0
KMD1 081334Z 34007KT 02/02 A3022 RMK A01 T00200017  RH  098%=      5-min Rain = 0
KMD1 081335Z 34007KT 02/02 A3022 RMK A01 T00200017  RH  098%=      5-min Rain = 0
KMD1 081336Z 34006KT 02/02 A3022 RMK A01 T00200017  RH  098%=      5-min Rain = 0
KMD1 081337Z 34008KT 02/02 A3022 RMK A01 T00200017  RH  098%=      5-min Rain = 0
KMD1 081338Z 33006KT 02/02 A3022 RMK A01 T00200017  RH  098%=      5-min Rain = 0
KMD1 081339Z 33007KT 02/02 A3022 RMK A01 T00200017  RH  098%=      5-min Rain = 0
KMD1 081340Z 33008KT 02/02 A3022 RMK A01 T00200017  RH  098%=      5-min Rain = 0
KMD1 081341Z 34008KT 02/02 A3022 RMK A01 T00200017  RH  098%=      5-min Rain = 0
KMD1 081342Z 34008KT 02/02 A3022 RMK A01 T00200017  RH  098%=      5-min Rain = 0.01
KMD1 081343Z 34007KT 02/02 A3022 RMK A01 T00190016  RH  098%=      5-min Rain = 0
KMD1 081344Z 34008KT 02/02 A3022 RMK A01 T00200017  RH  098%=      5-min Rain = 0
KMD1 081345Z 35012KT 02/02 A3022 RMK A01 T00190016  RH  098%=      5-min Rain = 0
KMD1 081346Z 35009KT 02/02 A3022 RMK A01 T00190016  RH  098%=      5-min Rain = 0
KMD1 081347Z 35013KT 02/02 A3022 RMK A01 T00190016  RH  098%=      5-min Rain = 0
KMD1 081348Z 34013G19KT 02/02 A3022 RMK A01 T00190015  RH  097%=      5-min Rain = 0
KMD1 081349Z 35012KT 02/02 A3022 RMK A01 T00190015  RH  097%=      5-min Rain = 0
KMD1 081350Z 34010KT 02/02 A3022 RMK A01 T00190015  RH  097%=      5-min Rain = 0
KMD1 081351Z 35012KT 02/01 A3022 RMK A01 T00190014  RH  097%=      5-min Rain = 0
KMD1 081352Z 35010KT 02/01 A3022 RMK A01 T00190014  RH  097%=      5-min Rain = 0
KMD1 081353Z 36008KT 02/01 A3022 RMK A01 T00190014  RH  097%=      5-min Rain = 0
KMD1 081354Z 35007KT 02/01 A3022 RMK A01 T00190014  RH  097%=      5-min Rain = 0
KMD1 081355Z 35008KT 02/01 A3022 RMK A01 T00190014  RH  097%=      5-min Rain = 0
KMD1 081356Z 34009KT 02/01 A3022 RMK A01 T00180014  RH  097%=      5-min Rain = 0
KMD1 081357Z 35008KT 02/01 A3022 RMK A01 T00190014  RH  097%=      5-min Rain = 0
KMD1 081358Z 35011KT 02/01 A3023 RMK A01 T00190014  RH  097%=      5-min Rain = 0
KMD1 081359Z 35011KT 02/01 A3023 RMK A01 T00190014  RH  097%=      5-min Rain = 0
KMD1 081400Z 34008G14KT 02/01 A3023 RMK A01 T00190014  RH  097%=      5-min Rain = 0
KMD1 081401Z 34011KT 02/01 A3023 RMK A01 T00190014  RH  097%=      5-min Rain = 0
KMD1 081402Z 35008KT 02/01 A3023 RMK A01 T00190014  RH  097%=      5-min Rain = 0
KMD1 081403Z 35009KT 02/01 A3023 RMK A01 T00180014  RH  097%=      5-min Rain = 0
KMD1 081404Z 35011KT 02/01 A3023 RMK A01 T00190014  RH  097%=      5-min Rain = 0
KMD1 081405Z 35011KT 02/01 A3023 RMK A01 T00190014  RH  097%=      5-min Rain = 0
KMD1 081406Z 35009KT 02/01 A3023 RMK A01 T00190014  RH  096%=      5-min Rain = 0
KMD1 081407Z 35009KT 02/01 A3023 RMK A01 T00190013  RH  096%=      5-min Rain = 0
KMD1 081408Z 34008KT 02/01 A3023 RMK A01 T00190014  RH  096%=      5-min Rain = 0
KMD1 081409Z 35008KT 02/01 A3023 RMK A01 T00190014  RH  097%=      5-min Rain = 0
KMD1 081410Z 35009KT 02/01 A3023 RMK A01 T00190014  RH  097%=      5-min Rain = 0
KMD1 081411Z 34007KT 02/01 A3023 RMK A01 T00190014  RH  096%=      5-min Rain = 0.01
KMD1 081412Z 35006KT 02/01 A3023 RMK A01 T00190014  RH  097%=      5-min Rain = 0
KMD1 081413Z 34005KT 02/02 A3023 RMK A01 T00200015  RH  097%=      5-min Rain = 0
KMD1 081414Z 35006KT 02/02 A3023 RMK A01 T00190015  RH  097%=      5-min Rain = 0
KMD1 081415Z 35010KT 02/02 A3023 RMK A01 T00200015  RH  097%=      5-min Rain = 0
KMD1 081416Z 35011KT 02/02 A3023 RMK A01 T00200015  RH  097%=      5-min Rain = 0
KMD1 081417Z 35009KT 02/02 A3023 RMK A01 T00190015  RH  097%=      5-min Rain = 0
KMD1 081418Z 35010KT 02/02 A3023 RMK A01 T00200015  RH  097%=      5-min Rain = 0
KMD1 081419Z 35009KT 02/02 A3023 RMK A01 T00190015  RH  097%=      5-min Rain = 0
KMD1 081420Z 35008KT 02/02 A3023 RMK A01 T00200015  RH  097%=      5-min Rain = 0
KMD1 081421Z 35008KT 02/02 A3023 RMK A01 T00200015  RH  097%=      5-min Rain = 0
KMD1 081422Z 34008KT 02/02 A3023 RMK A01 T00200015  RH  097%=      5-min Rain = 0
KMD1 081423Z 34007KT 02/02 A3024 RMK A01 T00200015  RH  097%=      5-min Rain = 0
KMD1 081424Z 35009KT 02/02 A3024 RMK A01 T00200016  RH  097%=      5-min Rain = 0
KMD1 081425Z 35008KT 02/02 A3024 RMK A01 T00200015  RH  097%=      5-min Rain = 0
KMD1 081426Z 35008KT 02/02 A3024 RMK A01 T00200015  RH  097%=      5-min Rain = 0
KMD1 081427Z 35009KT 02/02 A3024 RMK A01 T00190015  RH  097%=      5-min Rain = 0
KMD1 081428Z 35008KT 02/02 A3024 RMK A01 T00200015  RH  097%=      5-min Rain = 0
KMD1 081429Z 36008KT 02/02 A3024 RMK A01 T00200016  RH  097%=      5-min Rain = 0
KMD1 081430Z 35007KT 02/02 A3024 RMK A01 T00200016  RH  097%=      5-min Rain = 0
KMD1 081431Z 35010KT 02/02 A3024 RMK A01 T00200016  RH  097%=      5-min Rain = 0
KMD1 081432Z 34009KT 02/02 A3024 RMK A01 T00200015  RH  097%=      5-min Rain = 0
KMD1 081433Z 33009KT 02/02 A3024 RMK A01 T00200015  RH  097%=      5-min Rain = 0
KMD1 081434Z 34009KT 02/02 A3024 RMK A01 T00200015  RH  097%=      5-min Rain = 0
KMD1 081435Z 35009KT 02/02 A3024 RMK A01 T00200015  RH  097%=      5-min Rain = 0
KMD1 081436Z 35008KT 02/02 A3024 RMK A01 T00200015  RH  097%=      5-min Rain = 0
KMD1 081437Z 35008KT 02/02 A3024 RMK A01 T00190015  RH  097%=      5-min Rain = 0
KMD1 081438Z 35010KT 02/02 A3024 RMK A01 T00200016  RH  097%=      5-min Rain = 0
KMD1 081439Z 35010KT 02/02 A3024 RMK A01 T00200016  RH  097%=      5-min Rain = 0
KMD1 081440Z 36009KT 02/02 A3024 RMK A01 T00200015  RH  097%=      5-min Rain = 0
KMD1 081441Z 00009KT 02/02 A3024 RMK A01 T00200015  RH  097%=      5-min Rain = 0
KMD1 081442Z 35009KT 02/02 A3024 RMK A01 T00200015  RH  097%=      5-min Rain = 0
KMD1 081443Z 33008KT 02/02 A3024 RMK A01 T00200015  RH  097%=      5-min Rain = 0
KMD1 081444Z 33007KT 02/02 A3024 RMK A01 T00200015  RH  097%=      5-min Rain = 0
KMD1 081445Z 36005KT 02/02 A3024 RMK A01 T00200015  RH  097%=      5-min Rain = 0
KMD1 081446Z 35008KT 02/02 A3024 RMK A01 T00210016  RH  097%=      5-min Rain = 0
KMD1 081447Z 34011KT 02/02 A3024 RMK A01 T00200015  RH  097%=      5-min Rain = 0
KMD1 081448Z 36010KT 02/02 A3024 RMK A01 T00200015  RH  097%=      5-min Rain = 0
KMD1 081449Z 35009G15KT 02/02 A3025 RMK A01 T00200015  RH  096%=      5-min Rain = 0
KMD1 081450Z 35008KT 02/02 A3025 RMK A01 T00200015  RH  096%=      5-min Rain = 0
KMD1 081451Z 35008KT 02/02 A3025 RMK A01 T00200015  RH  096%=      5-min Rain = 0
KMD1 081452Z 35011KT 02/02 A3025 RMK A01 T00200015  RH  096%=      5-min Rain = 0
KMD1 081453Z 36010KT 02/02 A3025 RMK A01 T00200015  RH  096%=      5-min Rain = 0
KMD1 081454Z 35011KT 02/02 A3025 RMK A01 T00200015  RH  096%=      5-min Rain = 0
KMD1 081455Z 35009KT 02/01 A3025 RMK A01 T00200014  RH  096%=      5-min Rain = 0
KMD1 081456Z 35008KT 02/01 A3025 RMK A01 T00190014  RH  096%=      5-min Rain = 0
KMD1 081457Z 35009KT 02/02 A3025 RMK A01 T00200015  RH  096%=      5-min Rain = 0
KMD1 081458Z 36009KT 02/02 A3025 RMK A01 T00200015  RH  096%=      5-min Rain = 0
KMD1 081459Z 36010KT 02/01 A3025 RMK A01 T00200014  RH  096%=      5-min Rain = 0
KMD1 081500Z 34009KT 02/02 A3025 RMK A01 T00200015  RH  096%=      5-min Rain = 0
KMD1 081501Z 35008KT 02/02 A3025 RMK A01 T00200015  RH  096%=      5-min Rain = 0
KMD1 081502Z 36009KT 02/02 A3025 RMK A01 T00200015  RH  096%=      5-min Rain = 0
KMD1 081503Z 00008KT 02/02 A3025 RMK A01 T00200015  RH  096%=      5-min Rain = 0
KMD1 081504Z 00007KT 02/02 A3025 RMK A01 T00200015  RH  096%=      5-min Rain = 0
KMD1 081505Z 35005KT 02/02 A3025 RMK A01 T00210016  RH  097%=      5-min Rain = 0
KMD1 081506Z 36005KT 02/02 A3025 RMK A01 T00210016  RH  097%=      5-min Rain = 0
KMD1 081507Z 35005KT 02/02 A3025 RMK A01 T00210017  RH  097%=      5-min Rain = 0
KMD1 081508Z 34005KT 02/02 A3025 RMK A01 T00210016  RH  097%=      5-min Rain = 0
KMD1 081509Z 34007KT 02/02 A3025 RMK A01 T00210016  RH  097%=      5-min Rain = 0
KMD1 081510Z 36005KT 02/02 A3025 RMK A01 T00210017  RH  097%=      5-min Rain = 0
KMD1 081511Z 34007KT 02/02 A3025 RMK A01 T00220017  RH  097%=      5-min Rain = 0
KMD1 081512Z 34006KT 02/02 A3025 RMK A01 T00220018  RH  097%=      5-min Rain = 0
KMD1 081513Z 36007KT 02/02 A3025 RMK A01 T00220018  RH  097%=      5-min Rain = 0
KMD1 081514Z 36008KT 02/02 A3025 RMK A01 T00220018  RH  097%=      5-min Rain = 0
KMD1 081515Z 34006KT 02/02 A3025 RMK A01 T00210017  RH  097%=      5-min Rain = 0
KMD1 081516Z 34006KT 02/02 A3025 RMK A01 T00210017  RH  097%=      5-min Rain = 0
KMD1 081517Z 34006KT 02/02 A3026 RMK A01 T00210017  RH  097%=      5-min Rain = 0
KMD1 081518Z 33005KT 02/02 A3026 RMK A01 T00210017  RH  097%=      5-min Rain = 0
KMD1 081519Z 33007KT 02/02 A3026 RMK A01 T00220018  RH  097%=      5-min Rain = 0
KMD1 081520Z 34007KT 02/02 A3026 RMK A01 T00220018  RH  097%=      5-min Rain = 0
KMD1 081521Z 33008KT 02/02 A3026 RMK A01 T00210017  RH  097%=      5-min Rain = 0
KMD1 081522Z 33007KT 02/02 A3026 RMK A01 T00210017  RH  097%=      5-min Rain = 0
KMD1 081523Z 34006KT 02/02 A3026 RMK A01 T00210017  RH  097%=      5-min Rain = 0
KMD1 081524Z 33008KT 02/02 A3026 RMK A01 T00220019  RH  098%=      5-min Rain = 0
KMD1 081525Z 33007KT 02/02 A3026 RMK A01 T00220018  RH  097%=      5-min Rain = 0
KMD1 081526Z 33007KT 02/02 A3026 RMK A01 T00220018  RH  097%=      5-min Rain = 0
KMD1 081527Z 34006KT 02/02 A3026 RMK A01 T00220019  RH  098%=      5-min Rain = 0
KMD1 081528Z 35007KT 02/02 A3026 RMK A01 T00220019  RH  098%=      5-min Rain = 0
KMD1 081529Z 35008KT 02/02 A3026 RMK A01 T00230019  RH  098%=      5-min Rain = 0
KMD1 081530Z 33007KT 02/02 A3026 RMK A01 T00230019  RH  098%=      5-min Rain = 0
KMD1 081531Z 33009KT 02/02 A3026 RMK A01 T00230019  RH  098%=      5-min Rain = 0
KMD1 081532Z 34009KT 02/02 A3026 RMK A01 T00220018  RH  097%=      5-min Rain = 0
KMD1 081533Z 35009KT 02/02 A3026 RMK A01 T00220019  RH  097%=      5-min Rain = 0
KMD1 081534Z 35007KT 02/02 A3026 RMK A01 T00220019  RH  097%=      5-min Rain = 0
KMD1 081535Z 34007KT 02/02 A3026 RMK A01 T00230019  RH  097%=      5-min Rain = 0
KMD1 081536Z 34007KT 02/02 A3026 RMK A01 T00240020  RH  097%=      5-min Rain = 0
KMD1 081537Z 34008KT 02/02 A3026 RMK A01 T00240020  RH  097%=      5-min Rain = 0
KMD1 081538Z 33007KT 02/02 A3027 RMK A01 T00230019  RH  097%=      5-min Rain = 0
KMD1 081539Z 32006KT 02/02 A3027 RMK A01 T00230019  RH  097%=      5-min Rain = 0
KMD1 081540Z 33010KT 02/02 A3027 RMK A01 T00230019  RH  097%=      5-min Rain = 0
KMD1 081541Z 33010KT 02/02 A3027 RMK A01 T00230018  RH  097%=      5-min Rain = 0
KMD1 081542Z 33009KT 02/02 A3027 RMK A01 T00220018  RH  097%=      5-min Rain = 0
KMD1 081543Z 33010KT 02/02 A3027 RMK A01 T00220017  RH  097%=      5-min Rain = 0
KMD1 081544Z 34008KT 02/02 A3027 RMK A01 T00220017  RH  097%=      5-min Rain = 0
KMD1 081545Z 33007KT 02/02 A3027 RMK A01 T00220018  RH  097%=      5-min Rain = 0
KMD1 081546Z 33008KT 02/02 A3027 RMK A01 T00220018  RH  097%=      5-min Rain = 0
KMD1 081547Z 33008KT 02/02 A3027 RMK A01 T00220018  RH  097%=      5-min Rain = 0
KMD1 081548Z 33009KT 02/02 A3027 RMK A01 T00220018  RH  097%=      5-min Rain = 0
KMD1 081549Z 32010KT 02/02 A3027 RMK A01 T00220017  RH  097%=      5-min Rain = 0
KMD1 081550Z 32010KT 02/02 A3027 RMK A01 T00220017  RH  097%=      5-min Rain = 0
KMD1 081551Z 34009KT 02/02 A3027 RMK A01 T00220018  RH  097%=      5-min Rain = 0
KMD1 081552Z 32009G14KT 02/02 A3027 RMK A01 T00220018  RH  097%=      5-min Rain = 0
KMD1 081553Z 34011KT 02/02 A3027 RMK A01 T00220018  RH  097%=      5-min Rain = 0
KMD1 081554Z 35013KT 02/02 A3027 RMK A01 T00210016  RH  097%=      5-min Rain = 0
KMD1 081555Z 34012KT 02/02 A3027 RMK A01 T00210017  RH  097%=      5-min Rain = 0
KMD1 081556Z 35011KT 02/02 A3027 RMK A01 T00210016  RH  097%=      5-min Rain = 0
KMD1 081557Z 34010KT 02/02 A3027 RMK A01 T00210016  RH  097%=      5-min Rain = 0
KMD1 081558Z 33008KT 02/02 A3027 RMK A01 T00220017  RH  097%=      5-min Rain = 0
KMD1 081559Z 34006KT 02/02 A3027 RMK A01 T00220017  RH  097%=      5-min Rain = 0
KMD1 081600Z 35010G15KT 02/02 A3027 RMK A01 T00230018  RH  097%=      5-min Rain = 0
KMD1 081601Z 33010KT 02/02 A3027 RMK A01 T00230018  RH  097%=      5-min Rain = 0
KMD1 081602Z 33012KT 02/02 A3027 RMK A01 T00220018  RH  097%=      5-min Rain = 0
KMD1 081603Z 34015G20KT 02/02 A3026 RMK A01 T00220017  RH  097%=      5-min Rain = 0
KMD1 081604Z 34013G18KT 02/02 A3027 RMK A01 T00210016  RH  096%=      5-min Rain = 0
KMD1 081605Z 33011KT 02/02 A3027 RMK A01 T00210016  RH  097%=      5-min Rain = 0
KMD1 081606Z 34015KT 02/02 A3027 RMK A01 T00220017  RH  097%=      5-min Rain = 0
KMD1 081607Z 35014KT 02/02 A3027 RMK A01 T00220017  RH  097%=      5-min Rain = 0
KMD1 081608Z 34013KT 02/02 A3027 RMK A01 T00210016  RH  096%=      5-min Rain = 0
KMD1 081609Z 34012KT 02/02 A3027 RMK A01 T00220016  RH  096%=      5-min Rain = 0
KMD1 081610Z 35012KT 02/02 A3027 RMK A01 T00210016  RH  096%=      5-min Rain = 0
KMD1 081611Z 36011KT 02/02 A3027 RMK A01 T00210016  RH  096%=      5-min Rain = 0
KMD1 081612Z 35010KT 02/02 A3027 RMK A01 T00220017  RH  096%=      5-min Rain = 0
KMD1 081613Z 35011KT 02/02 A3027 RMK A01 T00220016  RH  096%=      5-min Rain = 0
KMD1 081614Z 36012KT 02/02 A3027 RMK A01 T00220017  RH  096%=      5-min Rain = 0
KMD1 081615Z 35010KT 02/02 A3027 RMK A01 T00220016  RH  096%=      5-min Rain = 0
KMD1 081616Z 34006KT 02/02 A3027 RMK A01 T00220017  RH  096%=      5-min Rain = 0
KMD1 081617Z 34006KT 02/02 A3027 RMK A01 T00230019  RH  097%=      5-min Rain = 0
KMD1 081618Z 34006KT 02/02 A3027 RMK A01 T00240020  RH  097%=      5-min Rain = 0
KMD1 081619Z 34007KT 03/02 A3027 RMK A01 T00250020  RH  097%=      5-min Rain = 0
KMD1 081620Z 34010G15KT 02/02 A3027 RMK A01 T00240019  RH  097%=      5-min Rain = 0
KMD1 081621Z 33012KT 02/02 A3027 RMK A01 T00240019  RH  096%=      5-min Rain = 0
KMD1 081622Z 32012KT 02/02 A3027 RMK A01 T00220017  RH  096%=      5-min Rain = 0
KMD1 081623Z 33011KT 02/02 A3027 RMK A01 T00220017  RH  096%=      5-min Rain = 0
KMD1 081624Z 33013KT 02/02 A3027 RMK A01 T00220017  RH  096%=      5-min Rain = 0
KMD1 081625Z 34012KT 02/02 A3027 RMK A01 T00220017  RH  096%=      5-min Rain = 0
KMD1 081626Z 36012KT 02/02 A3027 RMK A01 T00230018  RH  096%=      5-min Rain = 0
KMD1 081627Z 35011KT 02/02 A3027 RMK A01 T00230018  RH  096%=      5-min Rain = 0
KMD1 081628Z 35010KT 02/02 A3027 RMK A01 T00230018  RH  096%=      5-min Rain = 0
KMD1 081629Z 36010KT 02/02 A3027 RMK A01 T00230018  RH  096%=      5-min Rain = 0
KMD1 081630Z 34009KT 02/02 A3027 RMK A01 T00230017  RH  096%=      5-min Rain = 0
KMD1 081631Z 34009KT 02/02 A3027 RMK A01 T00230018  RH  096%=      5-min Rain = 0
KMD1 081632Z 35008KT 02/02 A3027 RMK A01 T00240018  RH  096%=      5-min Rain = 0
KMD1 081633Z 34010KT 02/02 A3027 RMK A01 T00240019  RH  096%=      5-min Rain = 0
KMD1 081634Z 33011KT 02/02 A3027 RMK A01 T00240019  RH  096%=      5-min Rain = 0
KMD1 081635Z 33010KT 03/02 A3027 RMK A01 T00250019  RH  096%=      5-min Rain = 0
KMD1 081636Z 34009KT 03/02 A3026 RMK A01 T00250019  RH  096%=      5-min Rain = 0
KMD1 081637Z 34009KT 03/02 A3026 RMK A01 T00250019  RH  096%=      5-min Rain = 0
KMD1 081638Z 34009KT 03/02 A3026 RMK A01 T00250019  RH  096%=      5-min Rain = 0
KMD1 081639Z 35011KT 03/02 A3026 RMK A01 T00250019  RH  096%=      5-min Rain = 0
KMD1 081640Z 34010KT 03/02 A3026 RMK A01 T00260019  RH  095%=      5-min Rain = 0
KMD1 081641Z 35012KT 03/02 A3026 RMK A01 T00260019  RH  095%=      5-min Rain = 0
KMD1 081642Z 35012KT 03/02 A3026 RMK A01 T00260019  RH  095%=      5-min Rain = 0
KMD1 081643Z 35010KT 03/02 A3026 RMK A01 T00260019  RH  095%=      5-min Rain = 0
KMD1 081644Z 35011KT 03/02 A3026 RMK A01 T00260018  RH  095%=      5-min Rain = 0
KMD1 081645Z 35012KT 03/02 A3026 RMK A01 T00270019  RH  095%=      5-min Rain = 0
KMD1 081646Z 35010KT 03/02 A3026 RMK A01 T00270020  RH  095%=      5-min Rain = 0
KMD1 081647Z 35008KT 03/02 A3026 RMK A01 T00290022  RH  095%=      5-min Rain = 0
KMD1 081648Z 34009G14KT 03/02 A3026 RMK A01 T00300023  RH  095%=      5-min Rain = 0
KMD1 081649Z 35009KT 03/02 A3026 RMK A01 T00290022  RH  095%=      5-min Rain = 0
KMD1 081650Z 33007KT 03/02 A3026 RMK A01 T00290021  RH  095%=      5-min Rain = 0
KMD1 081651Z 36009KT 03/02 A3026 RMK A01 T00290022  RH  095%=      5-min Rain = 0.01
KMD1 081652Z 34008KT 03/02 A3026 RMK A01 T00290022  RH  095%=      5-min Rain = 0
KMD1 081653Z 33005KT 03/02 A3026 RMK A01 T00290021  RH  095%=      5-min Rain = 0
KMD1 081654Z 33008KT 03/02 A3026 RMK A01 T00300023  RH  095%=      5-min Rain = 0
KMD1 081655Z 33008KT 03/02 A3026 RMK A01 T00300022  RH  095%=      5-min Rain = 0
KMD1 081656Z 33009KT 03/02 A3026 RMK A01 T00290022  RH  095%=      5-min Rain = 0
KMD1 081657Z 34010KT 03/02 A3026 RMK A01 T00290021  RH  094%=      5-min Rain = 0
KMD1 081658Z 33007KT 03/02 A3026 RMK A01 T00280019  RH  094%=      5-min Rain = 0
KMD1 081659Z 33008KT 03/02 A3026 RMK A01 T00280020  RH  094%=      5-min Rain = 0
KMD1 081700Z 33009KT 03/02 A3026 RMK A01 T00290020  RH  094%=      5-min Rain = 0
KMD1 081701Z 34011KT 03/02 A3026 RMK A01 T00290021  RH  094%=      5-min Rain = 0
KMD1 081702Z 33011KT 03/02 A3026 RMK A01 T00290020  RH  094%=      5-min Rain = 0
KMD1 081703Z 33010KT 03/02 A3026 RMK A01 T00280020  RH  094%=      5-min Rain = 0
KMD1 081704Z 34010KT 03/02 A3026 RMK A01 T00280019  RH  094%=      5-min Rain = 0
KMD1 081705Z 33008KT 03/02 A3026 RMK A01 T00270018  RH  094%=      5-min Rain = 0
KMD1 081706Z 33009KT 03/02 A3026 RMK A01 T00270018  RH  094%=      5-min Rain = 0
KMD1 081707Z 33011KT 03/02 A3027 RMK A01 T00270018  RH  094%=      5-min Rain = 0
KMD1 081708Z 33010KT 03/02 A3026 RMK A01 T00270018  RH  094%=      5-min Rain = 0
KMD1 081709Z 32010KT 03/02 A3026 RMK A01 T00260017  RH  094%=      5-min Rain = 0
KMD1 081710Z 32009KT 03/02 A3027 RMK A01 T00260017  RH  094%=      5-min Rain = 0
KMD1 081711Z 32010KT 03/02 A3027 RMK A01 T00260017  RH  094%=      5-min Rain = 0
KMD1 081712Z 32010KT 03/02 A3027 RMK A01 T00260018  RH  094%=      5-min Rain = 0
KMD1 081713Z 33009KT 03/02 A3027 RMK A01 T00260018  RH  094%=      5-min Rain = 0
KMD1 081714Z 32008KT 03/02 A3027 RMK A01 T00260018  RH  094%=      5-min Rain = 0
KMD1 081715Z 32008KT 03/02 A3027 RMK A01 T00260018  RH  094%=      5-min Rain = 0
KMD1 081716Z 32010KT 03/02 A3027 RMK A01 T00270018  RH  094%=      5-min Rain = 0
KMD1 081717Z 32009KT 03/02 A3027 RMK A01 T00260018  RH  094%=      5-min Rain = 0
KMD1 081718Z 33009KT 03/02 A3027 RMK A01 T00270018  RH  094%=      5-min Rain = 0
KMD1 081719Z 33010KT 03/02 A3027 RMK A01 T00270018  RH  094%=      5-min Rain = 0
KMD1 081720Z 33011KT 03/02 A3027 RMK A01 T00270018  RH  094%=      5-min Rain = 0
KMD1 081721Z 34010KT 03/02 A3027 RMK A01 T00270018  RH  094%=      5-min Rain = 0
KMD1 081722Z 34008KT 03/02 A3027 RMK A01 T00280019  RH  094%=      5-min Rain = 0
KMD1 081723Z 34007KT 03/02 A3027 RMK A01 T00270018  RH  094%=      5-min Rain = 0
KMD1 081724Z 33005KT 03/02 A3026 RMK A01 T00280019  RH  094%=      5-min Rain = 0
KMD1 081725Z 33005KT 03/02 A3027 RMK A01 T00290020  RH  094%=      5-min Rain = 0
KMD1 081726Z 33005KT 03/02 A3027 RMK A01 T00290021  RH  094%=      5-min Rain = 0
KMD1 081727Z 34008KT 03/02 A3026 RMK A01 T00290021  RH  094%=      5-min Rain = 0
KMD1 081728Z 34010KT 03/02 A3026 RMK A01 T00290020  RH  094%=      5-min Rain = 0
KMD1 081729Z 32008KT 03/02 A3026 RMK A01 T00280019  RH  094%=      5-min Rain = 0
KMD1 081730Z 32005KT 03/02 A3026 RMK A01 T00280020  RH  094%=      5-min Rain = 0
KMD1 081731Z 33006KT 03/02 A3026 RMK A01 T00290022  RH  095%=      5-min Rain = 0
KMD1 081732Z 33008KT 03/02 A3026 RMK A01 T00300022  RH  095%=      5-min Rain = 0
KMD1 081733Z 33009KT 03/02 A3026 RMK A01 T00300022  RH  094%=      5-min Rain = 0
KMD1 081734Z 32007KT 03/02 A3026 RMK A01 T00300021  RH  094%=      5-min Rain = 0
KMD1 081735Z 32009KT 03/02 A3026 RMK A01 T00300022  RH  095%=      5-min Rain = 0
KMD1 081736Z 32012KT 03/02 A3026 RMK A01 T00300021  RH  094%=      5-min Rain = 0
KMD1 081737Z 32010KT 03/02 A3026 RMK A01 T00290019  RH  094%=      5-min Rain = 0
KMD1 081738Z 32009KT 03/02 A3026 RMK A01 T00280019  RH  094%=      5-min Rain = 0
KMD1 081739Z 33010KT 03/02 A3026 RMK A01 T00280019  RH  094%=      5-min Rain = 0
KMD1 081740Z 32009KT 03/02 A3026 RMK A01 T00290020  RH  094%=      5-min Rain = 0
KMD1 081741Z 32010KT 03/02 A3026 RMK A01 T00300021  RH  094%=      5-min Rain = 0
KMD1 081742Z 32010KT 03/02 A3026 RMK A01 T00300021  RH  094%=      5-min Rain = 0
KMD1 081743Z 32009KT 03/02 A3026 RMK A01 T00300021  RH  094%=      5-min Rain = 0
KMD1 081744Z 32010KT 03/02 A3026 RMK A01 T00300021  RH  094%=      5-min Rain = 0
KMD1 081745Z 34010KT 03/02 A3026 RMK A01 T00310022  RH  094%=      5-min Rain = 0
KMD1 081746Z 33010KT 03/02 A3026 RMK A01 T00310022  RH  094%=      5-min Rain = 0
KMD1 081747Z 33008KT 03/02 A3026 RMK A01 T00310021  RH  093%=      5-min Rain = 0
KMD1 081748Z 33009KT 03/02 A3026 RMK A01 T00320022  RH  094%=      5-min Rain = 0
KMD1 081749Z 33009KT 03/02 A3026 RMK A01 T00310022  RH  093%=      5-min Rain = 0
KMD1 081750Z 32007KT 03/02 A3026 RMK A01 T00320022  RH  093%=      5-min Rain = 0
KMD1 081751Z 33006KT 03/02 A3026 RMK A01 T00330024  RH  094%=      5-min Rain = 0
KMD1 081752Z 32007KT 03/03 A3026 RMK A01 T00340025  RH  094%=      5-min Rain = 0
KMD1 081753Z 33008KT 03/02 A3026 RMK A01 T00330024  RH  093%=      5-min Rain = 0
KMD1 081754Z 33007KT 03/02 A3026 RMK A01 T00320022  RH  093%=      5-min Rain = 0
KMD1 081755Z 32009KT 03/02 A3026 RMK A01 T00320023  RH  094%=      5-min Rain = 0
KMD1 081756Z 33008KT 03/02 A3026 RMK A01 T00320023  RH  094%=      5-min Rain = 0
KMD1 081757Z 33009KT 03/02 A3026 RMK A01 T00330024  RH  094%=      5-min Rain = 0
KMD1 081758Z 34012KT 03/02 A3026 RMK A01 T00330023  RH  094%=      5-min Rain = 0
KMD1 081759Z 32011KT 03/02 A3026 RMK A01 T00320022  RH  093%=      5-min Rain = 0
KMD1 081800Z 33010KT 03/02 A3026 RMK A01 T00320022  RH  093%=      5-min Rain = 0
KMD1 081801Z 32009KT 03/02 A3026 RMK A01 T00320023  RH  093%=      5-min Rain = 0
KMD1 081802Z 33008KT 03/02 A3025 RMK A01 T00330023  RH  094%=      5-min Rain = 0
KMD1 081803Z 33009KT 03/02 A3025 RMK A01 T00330024  RH  094%=      5-min Rain = 0
KMD1 081804Z 34009KT 03/02 A3025 RMK A01 T00340024  RH  094%=      5-min Rain = 0
KMD1 081805Z 33008KT 03/02 A3025 RMK A01 T00330023  RH  093%=      5-min Rain = 0
KMD1 081806Z 33008KT 03/02 A3025 RMK A01 T00330023  RH  093%=      5-min Rain = 0
KMD1 081807Z 33008KT 03/02 A3025 RMK A01 T00330023  RH  093%=      5-min Rain = 0
KMD1 081808Z 33006KT 03/02 A3025 RMK A01 T00330023  RH  093%=      5-min Rain = 0
KMD1 081809Z 32009KT 03/03 A3025 RMK A01 T00340025  RH  094%=      5-min Rain = 0
KMD1 081810Z 33007KT 04/03 A3025 RMK A01 T00350026  RH  094%=      5-min Rain = 0
KMD1 081811Z 34008KT 04/03 A3025 RMK A01 T00350026  RH  094%=      5-min Rain = 0
KMD1 081812Z 33007KT 04/03 A3025 RMK A01 T00350026  RH  094%=      5-min Rain = 0
KMD1 081813Z 34008KT 04/03 A3025 RMK A01 T00350026  RH  094%=      5-min Rain = 0
KMD1 081814Z 34010KT 04/03 A3025 RMK A01 T00350025  RH  093%=      5-min Rain = 0
KMD1 081815Z 34009KT 03/02 A3025 RMK A01 T00340024  RH  093%=      5-min Rain = 0
KMD1 081816Z 34008KT 03/03 A3025 RMK A01 T00340025  RH  094%=      5-min Rain = 0
KMD1 081817Z 34008KT 04/03 A3025 RMK A01 T00350026  RH  094%=      5-min Rain = 0
KMD1 081818Z 34009KT 03/03 A3025 RMK A01 T00340025  RH  094%=      5-min Rain = 0
KMD1 081819Z 33010KT 03/02 A3025 RMK A01 T00340024  RH  094%=      5-min Rain = 0
KMD1 081820Z 33010KT 03/02 A3025 RMK A01 T00340024  RH  094%=      5-min Rain = 0
KMD1 081821Z 33008KT 03/02 A3025 RMK A01 T00340024  RH  093%=      5-min Rain = 0
KMD1 081822Z 33007KT 03/02 A3025 RMK A01 T00340024  RH  094%=      5-min Rain = 0
KMD1 081823Z 34008KT 03/03 A3025 RMK A01 T00340025  RH  094%=      5-min Rain = 0
KMD1 081824Z 33006KT 04/03 A3025 RMK A01 T00350026  RH  094%=      5-min Rain = 0
KMD1 081825Z 31007KT 04/03 A3025 RMK A01 T00360028  RH  094%=      5-min Rain = 0
KMD1 081826Z 33007KT 04/03 A3025 RMK A01 T00360028  RH  094%=      5-min Rain = 0
KMD1 081827Z 32007KT 04/03 A3025 RMK A01 T00360027  RH  094%=      5-min Rain = 0
KMD1 081828Z 33012KT 04/03 A3025 RMK A01 T00360027  RH  094%=      5-min Rain = 0
KMD1 081829Z 32010KT 04/03 A3024 RMK A01 T00360026  RH  094%=      5-min Rain = 0
KMD1 081830Z 31010KT 04/03 A3025 RMK A01 T00350026  RH  094%=      5-min Rain = 0
KMD1 081831Z 31011KT 04/03 A3025 RMK A01 T00350026  RH  094%=      5-min Rain = 0
KMD1 081832Z 32011KT 03/03 A3024 RMK A01 T00340025  RH  094%=      5-min Rain = 0
KMD1 081833Z 34010KT 03/03 A3024 RMK A01 T00340025  RH  093%=      5-min Rain = 0
KMD1 081834Z 33010KT 03/03 A3024 RMK A01 T00340025  RH  094%=      5-min Rain = 0
KMD1 081835Z 34010KT 03/03 A3024 RMK A01 T00340025  RH  093%=      5-min Rain = 0
KMD1 081836Z 31012KT 03/03 A3024 RMK A01 T00340025  RH  094%=      5-min Rain = 0
KMD1 081837Z 32011KT 03/03 A3024 RMK A01 T00340025  RH  094%=      5-min Rain = 0
KMD1 081838Z 31011KT 03/03 A3024 RMK A01 T00340025  RH  094%=      5-min Rain = 0
KMD1 081839Z 32011KT 04/03 A3024 RMK A01 T00350026  RH  094%=      5-min Rain = 0
KMD1 081840Z 33011KT 04/03 A3024 RMK A01 T00360027  RH  094%=      5-min Rain = 0
KMD1 081841Z 33009KT 04/03 A3024 RMK A01 T00360026  RH  094%=      5-min Rain = 0
KMD1 081842Z 32010KT 04/03 A3024 RMK A01 T00360027  RH  094%=      5-min Rain = 0
KMD1 081843Z 33009KT 04/03 A3024 RMK A01 T00360027  RH  093%=      5-min Rain = 0
KMD1 081844Z 33007KT 04/03 A3024 RMK A01 T00360027  RH  094%=      5-min Rain = 0
KMD1 081845Z 33008KT 04/03 A3024 RMK A01 T00370028  RH  094%=      5-min Rain = 0
KMD1 081846Z 33010KT 04/03 A3024 RMK A01 T00370027  RH  093%=      5-min Rain = 0
KMD1 081847Z 32008KT 04/03 A3024 RMK A01 T00370026  RH  093%=      5-min Rain = 0
KMD1 081848Z 32007KT 04/03 A3024 RMK A01 T00360026  RH  093%=      5-min Rain = 0
KMD1 081849Z 32006KT 04/03 A3024 RMK A01 T00370028  RH  094%=      5-min Rain = 0
KMD1 081850Z 31007KT 04/03 A3024 RMK A01 T00380029  RH  094%=      5-min Rain = 0
KMD1 081851Z 31007KT 04/03 A3024 RMK A01 T00380029  RH  094%=      5-min Rain = 0
KMD1 081852Z 31007KT 04/03 A3024 RMK A01 T00390029  RH  094%=      5-min Rain = 0
KMD1 081853Z 31008KT 04/03 A3024 RMK A01 T00390029  RH  093%=      5-min Rain = 0
KMD1 081854Z 32008KT 04/03 A3024 RMK A01 T00380029  RH  093%=      5-min Rain = 0
KMD1 081855Z 33010KT 04/03 A3024 RMK A01 T00380028  RH  093%=      5-min Rain = 0
KMD1 081856Z 31011KT 04/03 A3023 RMK A01 T00370027  RH  093%=      5-min Rain = 0
KMD1 081857Z 34012KT 04/03 A3023 RMK A01 T00370026  RH  093%=      5-min Rain = 0
KMD1 081858Z 32010KT 04/03 A3023 RMK A01 T00370027  RH  093%=      5-min Rain = 0
KMD1 081859Z 32010KT 04/03 A3023 RMK A01 T00370027  RH  093%=      5-min Rain = 0
KMD1 081900Z 32011KT 04/03 A3023 RMK A01 T00380029  RH  094%=      5-min Rain = 0
KMD1 081901Z 33012KT 04/03 A3023 RMK A01 T00380029  RH  093%=      5-min Rain = 0
KMD1 081902Z 32010KT 04/03 A3023 RMK A01 T00370027  RH  093%=      5-min Rain = 0
KMD1 081903Z 33012KT 04/03 A3023 RMK A01 T00370028  RH  093%=      5-min Rain = 0
KMD1 081904Z 32009KT 04/03 A3023 RMK A01 T00370027  RH  093%=      5-min Rain = 0
KMD1 081905Z 33010KT 04/03 A3023 RMK A01 T00370027  RH  094%=      5-min Rain = 0
KMD1 081906Z 32010KT 04/03 A3023 RMK A01 T00370028  RH  093%=      5-min Rain = 0
KMD1 081907Z 33011KT 04/03 A3023 RMK A01 T00380028  RH  093%=      5-min Rain = 0
KMD1 081908Z 33012KT 04/03 A3023 RMK A01 T00370027  RH  093%=      5-min Rain = 0
KMD1 081909Z 32010KT 04/03 A3023 RMK A01 T00370028  RH  093%=      5-min Rain = 0
KMD1 081910Z 31011KT 04/03 A3023 RMK A01 T00370028  RH  093%=      5-min Rain = 0
KMD1 081911Z 31010KT 04/03 A3022 RMK A01 T00380028  RH  093%=      5-min Rain = 0
KMD1 081912Z 32008KT 04/03 A3023 RMK A01 T00390030  RH  094%=      5-min Rain = 0
KMD1 081913Z 33009KT 04/03 A3023 RMK A01 T00390030  RH  094%=      5-min Rain = 0
KMD1 081914Z 34009KT 04/03 A3023 RMK A01 T00390029  RH  093%=      5-min Rain = 0
KMD1 081915Z 33008KT 04/03 A3023 RMK A01 T00390028  RH  093%=      5-min Rain = 0
KMD1 081916Z 35010G16KT 04/03 A3023 RMK A01 T00390028  RH  093%=      5-min Rain = 0
KMD1 081917Z 34013KT 04/03 A3023 RMK A01 T00390028  RH  093%=      5-min Rain = 0
KMD1 081918Z 33012KT 04/03 A3023 RMK A01 T00390028  RH  092%=      5-min Rain = 0
KMD1 081919Z 32008KT 04/03 A3023 RMK A01 T00390028  RH  092%=      5-min Rain = 0
KMD1 081920Z 33011KT 04/03 A3023 RMK A01 T00400030  RH  093%=      5-min Rain = 0
KMD1 081921Z 33013KT 04/03 A3023 RMK A01 T00410029  RH  092%=      5-min Rain = 0
KMD1 081922Z 33012KT 04/03 A3023 RMK A01 T00400028  RH  092%=      5-min Rain = 0
KMD1 081923Z 34009KT 04/03 A3023 RMK A01 T00390027  RH  092%=      5-min Rain = 0
KMD1 081924Z 34009KT 04/03 A3023 RMK A01 T00400028  RH  092%=      5-min Rain = 0
KMD1 081925Z 33008KT 04/03 A3023 RMK A01 T00400028  RH  092%=      5-min Rain = 0
KMD1 081926Z 33011KT 04/03 A3023 RMK A01 T00400029  RH  093%=      5-min Rain = 0
KMD1 081927Z 32010KT 04/03 A3023 RMK A01 T00400029  RH  093%=      5-min Rain = 0
KMD1 081928Z 33007KT 04/03 A3023 RMK A01 T00400030  RH  093%=      5-min Rain = 0
KMD1 081929Z 33008KT 04/03 A3023 RMK A01 T00400029  RH  093%=      5-min Rain = 0
KMD1 081930Z 33011KT 04/03 A3023 RMK A01 T00400029  RH  093%=      5-min Rain = 0
KMD1 081931Z 32011KT 04/03 A3023 RMK A01 T00400029  RH  092%=      5-min Rain = 0
KMD1 081932Z 32013KT 04/03 A3023 RMK A01 T00400029  RH  093%=      5-min Rain = 0
KMD1 081933Z 34010G15KT 04/03 A3023 RMK A01 T00400029  RH  092%=      5-min Rain = 0
KMD1 081934Z 34013G18KT 04/03 A3022 RMK A01 T00400028  RH  092%=      5-min Rain = 0
KMD1 081935Z 33011G17KT 04/03 A3023 RMK A01 T00400028  RH  092%=      5-min Rain = 0
KMD1 081936Z 33013KT 04/03 A3022 RMK A01 T00410028  RH  092%=      5-min Rain = 0
KMD1 081937Z 34010KT 04/03 A3023 RMK A01 T00410028  RH  091%=      5-min Rain = 0
KMD1 081938Z 32011KT 04/03 A3023 RMK A01 T00410028  RH  091%=      5-min Rain = 0
KMD1 081939Z 32008KT 04/03 A3023 RMK A01 T00410027  RH  091%=      5-min Rain = 0
KMD1 081940Z 32010KT 04/03 A3023 RMK A01 T00410028  RH  091%=      5-min Rain = 0
KMD1 081941Z 32012KT 04/03 A3023 RMK A01 T00420029  RH  091%=      5-min Rain = 0
KMD1 081942Z 33013KT 04/03 A3023 RMK A01 T00420029  RH  091%=      5-min Rain = 0
KMD1 081943Z 32011KT 04/03 A3023 RMK A01 T00420029  RH  091%=      5-min Rain = 0
KMD1 081944Z 32012KT 04/03 A3022 RMK A01 T00420029  RH  092%=      5-min Rain = 0
KMD1 081945Z 32011KT 04/03 A3022 RMK A01 T00420030  RH  092%=      5-min Rain = 0
KMD1 081946Z 32009KT 04/03 A3022 RMK A01 T00430030  RH  092%=      5-min Rain = 0
KMD1 081947Z 33008KT 04/03 A3022 RMK A01 T00420030  RH  092%=      5-min Rain = 0
KMD1 081948Z 32010G15KT 04/03 A3022 RMK A01 T00430031  RH  092%=      5-min Rain = 0
KMD1 081949Z 32010G16KT 04/03 A3022 RMK A01 T00430030  RH  092%=      5-min Rain = 0
KMD1 081950Z 32010KT 04/03 A3022 RMK A01 T00420031  RH  092%=      5-min Rain = 0
KMD1 081951Z 32011KT 04/03 A3022 RMK A01 T00430032  RH  092%=      5-min Rain = 0
KMD1 081952Z 33013KT 04/03 A3022 RMK A01 T00430031  RH  092%=      5-min Rain = 0
KMD1 081953Z 32012KT 04/03 A3022 RMK A01 T00420031  RH  092%=      5-min Rain = 0
KMD1 081954Z 32012KT 04/03 A3022 RMK A01 T00420031  RH  092%=      5-min Rain = 0
KMD1 081955Z 32011KT 04/03 A3022 RMK A01 T00420031  RH  093%=      5-min Rain = 0
KMD1 081956Z 32010KT 04/03 A3022 RMK A01 T00420032  RH  093%=      5-min Rain = 0
KMD1 081957Z 31010KT 04/03 A3022 RMK A01 T00420033  RH  093%=      5-min Rain = 0
KMD1 081958Z 31012KT 04/03 A3022 RMK A01 T00420033  RH  093%=      5-min Rain = 0
KMD1 081959Z 32010KT 04/03 A3022 RMK A01 T00430032  RH  093%=      5-min Rain = 0
KMD1 082000Z 32008KT 04/03 A3022 RMK A01 T00420032  RH  093%=      5-min Rain = 0
KMD1 082001Z 32008KT 04/03 A3022 RMK A01 T00430032  RH  093%=      5-min Rain = 0
KMD1 082002Z 33010KT 04/03 A3022 RMK A01 T00430032  RH  093%=      5-min Rain = 0
KMD1 082003Z 32009KT 04/03 A3022 RMK A01 T00430032  RH  093%=      5-min Rain = 0
KMD1 082004Z 32011KT 04/03 A3023 RMK A01 T00430032  RH  093%=      5-min Rain = 0
KMD1 082005Z 32014KT 04/03 A3022 RMK A01 T00430032  RH  093%=      5-min Rain = 0
KMD1 082006Z 32013KT 04/03 A3023 RMK A01 T00430032  RH  092%=      5-min Rain = 0
KMD1 082007Z 32012KT 04/03 A3023 RMK A01 T00430031  RH  092%=      5-min Rain = 0
KMD1 082008Z 32013KT 04/03 A3023 RMK A01 T00430030  RH  092%=      5-min Rain = 0
KMD1 082009Z 32012KT 04/03 A3023 RMK A01 T00430030  RH  092%=      5-min Rain = 0
KMD1 082010Z 32009KT 04/03 A3023 RMK A01 T00430030  RH  091%=      5-min Rain = 0
KMD1 082011Z 32010KT 04/03 A3023 RMK A01 T00430031  RH  092%=      5-min Rain = 0
KMD1 082012Z 31011KT 04/03 A3023 RMK A01 T00430031  RH  092%=      5-min Rain = 0
KMD1 082013Z 31012KT 04/03 A3022 RMK A01 T00430031  RH  092%=      5-min Rain = 0
KMD1 082014Z 32012KT 04/03 A3023 RMK A01 T00430031  RH  092%=      5-min Rain = 0
KMD1 082015Z 32011KT 04/03 A3023 RMK A01 T00430031  RH  092%=      5-min Rain = 0
KMD1 082016Z 33011KT 04/03 A3022 RMK A01 T00430031  RH  092%=      5-min Rain = 0
KMD1 082017Z 32010KT 04/03 A3023 RMK A01 T00430031  RH  092%=      5-min Rain = 0
KMD1 082018Z 32010KT 04/03 A3022 RMK A01 T00430032  RH  092%=      5-min Rain = 0
KMD1 082019Z 31011KT 04/03 A3022 RMK A01 T00420031  RH  092%=      5-min Rain = 0
KMD1 082020Z 32010KT 04/03 A3022 RMK A01 T00420031  RH  092%=      5-min Rain = 0
KMD1 082021Z 33009KT 04/03 A3022 RMK A01 T00420031  RH  093%=      5-min Rain = 0
KMD1 082022Z 32009KT 04/03 A3022 RMK A01 T00420031  RH  093%=      5-min Rain = 0
KMD1 082023Z 33009KT 04/03 A3022 RMK A01 T00420031  RH  092%=      5-min Rain = 0
KMD1 082024Z 33007KT 04/03 A3022 RMK A01 T00430032  RH  093%=      5-min Rain = 0
KMD1 082025Z 33008KT 04/03 A3022 RMK A01 T00430032  RH  092%=      5-min Rain = 0
KMD1 082026Z 32007KT 04/03 A3022 RMK A01 T00430031  RH  092%=      5-min Rain = 0
KMD1 082027Z 32006KT 04/03 A3022 RMK A01 T00430032  RH  092%=      5-min Rain = 0
KMD1 082028Z 31006KT 04/03 A3022 RMK A01 T00440032  RH  092%=      5-min Rain = 0
KMD1 082029Z 32010KT 04/03 A3022 RMK A01 T00440032  RH  092%=      5-min Rain = 0
KMD1 082030Z 32010KT 04/03 A3022 RMK A01 T00430031  RH  091%=      5-min Rain = 0
KMD1 082031Z 32009G14KT 04/03 A3022 RMK A01 T00440031  RH  092%=      5-min Rain = 0
KMD1 082032Z 33014KT 04/03 A3022 RMK A01 T00440030  RH  091%=      5-min Rain = 0
KMD1 082033Z 32012KT 04/03 A3022 RMK A01 T00430029  RH  090%=      5-min Rain = 0
KMD1 082034Z 32012KT 04/03 A3022 RMK A01 T00430028  RH  090%=      5-min Rain = 0
KMD1 082035Z 31011G16KT 04/03 A3022 RMK A01 T00430029  RH  090%=      5-min Rain = 0
KMD1 082036Z 33010KT 04/03 A3022 RMK A01 T00430029  RH  090%=      5-min Rain = 0
KMD1 082037Z 33012KT 04/03 A3022 RMK A01 T00430029  RH  090%=      5-min Rain = 0
KMD1 082038Z 32012KT 04/03 A3022 RMK A01 T00430029  RH  090%=      5-min Rain = 0
KMD1 082039Z 32013KT 04/03 A3022 RMK A01 T00440029  RH  090%=      5-min Rain = 0
KMD1 082040Z 32012KT 04/03 A3022 RMK A01 T00440030  RH  091%=      5-min Rain = 0
KMD1 082041Z 32009KT 04/03 A3022 RMK A01 T00440030  RH  091%=      5-min Rain = 0
KMD1 082042Z 32010KT 04/03 A3022 RMK A01 T00440031  RH  091%=      5-min Rain = 0
KMD1 082043Z 32009KT 05/03 A3022 RMK A01 T00450031  RH  091%=      5-min Rain = 0
KMD1 082044Z 32009KT 05/03 A3022 RMK A01 T00450031  RH  091%=      5-min Rain = 0
KMD1 082045Z 32009KT 05/03 A3022 RMK A01 T00450031  RH  091%=      5-min Rain = 0
KMD1 082046Z 33010KT 05/03 A3022 RMK A01 T00450031  RH  091%=      5-min Rain = 0
KMD1 082047Z 33010KT 04/03 A3022 RMK A01 T00440031  RH  091%=      5-min Rain = 0
KMD1 082048Z 32008KT 05/03 A3023 RMK A01 T00450031  RH  091%=      5-min Rain = 0
KMD1 082049Z 32011KT 04/03 A3022 RMK A01 T00440031  RH  091%=      5-min Rain = 0
KMD1 082050Z 32009KT 04/03 A3023 RMK A01 T00440031  RH  091%=      5-min Rain = 0
KMD1 082051Z 31008KT 04/03 A3023 RMK A01 T00440031  RH  091%=      5-min Rain = 0
KMD1 082052Z 31009KT 04/03 A3023 RMK A01 T00440031  RH  091%=      5-min Rain = 0
KMD1 082053Z 32011KT 04/03 A3023 RMK A01 T00440031  RH  091%=      5-min Rain = 0
KMD1 082054Z 33008KT 05/03 A3023 RMK A01 T00450031  RH  091%=      5-min Rain = 0
KMD1 082055Z 33008KT 04/03 A3023 RMK A01 T00440031  RH  091%=      5-min Rain = 0
KMD1 082056Z 33008KT 04/03 A3023 RMK A01 T00440031  RH  091%=      5-min Rain = 0
KMD1 082057Z 34009KT 04/03 A3023 RMK A01 T00440031  RH  091%=      5-min Rain = 0
KMD1 082058Z 34012KT 05/03 A3023 RMK A01 T00450031  RH  091%=      5-min Rain = 0
KMD1 082059Z 33010KT 04/03 A3023 RMK A01 T00430030  RH  091%=      5-min Rain = 0
KMD1 082100Z 32010G15KT 04/03 A3023 RMK A01 T00430030  RH  091%=      5-min Rain = 0
KMD1 082101Z 32013KT 04/03 A3023 RMK A01 T00430030  RH  091%=      5-min Rain = 0
KMD1 082102Z 32011KT 04/03 A3023 RMK A01 T00430029  RH  091%=      5-min Rain = 0
KMD1 082103Z 32013KT 04/03 A3023 RMK A01 T00430029  RH  091%=      5-min Rain = 0
KMD1 082104Z 33013KT 04/03 A3023 RMK A01 T00430029  RH  091%=      5-min Rain = 0
KMD1 082105Z 33011KT 04/03 A3023 RMK A01 T00430028  RH  090%=      5-min Rain = 0
KMD1 082106Z 33015KT 04/03 A3023 RMK A01 T00420028  RH  090%=      5-min Rain = 0
KMD1 082107Z 32013KT 04/03 A3023 RMK A01 T00420027  RH  090%=      5-min Rain = 0
KMD1 082108Z 33011KT 04/03 A3023 RMK A01 T00420027  RH  090%=      5-min Rain = 0
KMD1 082109Z 32011G16KT 04/03 A3023 RMK A01 T00420027  RH  090%=      5-min Rain = 0
KMD1 082110Z 32014KT 04/03 A3023 RMK A01 T00420027  RH  090%=      5-min Rain = 0
KMD1 082111Z 32013KT 04/03 A3023 RMK A01 T00420026  RH  089%=      5-min Rain = 0
KMD1 082112Z 32011KT 04/03 A3023 RMK A01 T00420026  RH  090%=      5-min Rain = 0
KMD1 082113Z 33010KT 04/03 A3023 RMK A01 T00420026  RH  089%=      5-min Rain = 0
KMD1 082114Z 33009KT 04/03 A3023 RMK A01 T00420026  RH  089%=      5-min Rain = 0
KMD1 082115Z 34009KT 04/03 A3023 RMK A01 T00420026  RH  089%=      5-min Rain = 0
KMD1 082116Z 33011KT 04/03 A3023 RMK A01 T00420027  RH  090%=      5-min Rain = 0
KMD1 082117Z 32010KT 04/03 A3023 RMK A01 T00420027  RH  090%=      5-min Rain = 0
KMD1 082118Z 33010KT 04/03 A3023 RMK A01 T00420026  RH  089%=      5-min Rain = 0
KMD1 082119Z 33008KT 04/03 A3023 RMK A01 T00420026  RH  090%=      5-min Rain = 0
KMD1 082120Z 32007KT 04/03 A3023 RMK A01 T00420027  RH  090%=      5-min Rain = 0
KMD1 082121Z 32008KT 04/03 A3023 RMK A01 T00430028  RH  090%=      5-min Rain = 0
KMD1 082122Z 32010KT 04/03 A3023 RMK A01 T00430028  RH  090%=      5-min Rain = 0
KMD1 082123Z 32013G19KT 04/03 A3023 RMK A01 T00430028  RH  090%=      5-min Rain = 0
KMD1 082124Z 32012KT 04/03 A3023 RMK A01 T00420026  RH  089%=      5-min Rain = 0
KMD1 082125Z 33009KT 04/03 A3023 RMK A01 T00420026  RH  089%=      5-min Rain = 0
KMD1 082126Z 33012KT 04/03 A3023 RMK A01 T00420026  RH  090%=      5-min Rain = 0
KMD1 082127Z 32013KT 04/03 A3023 RMK A01 T00410025  RH  089%=      5-min Rain = 0
KMD1 082128Z 33010G15KT 04/03 A3023 RMK A01 T00410025  RH  089%=      5-min Rain = 0
KMD1 082129Z 33011KT 04/03 A3023 RMK A01 T00410025  RH  089%=      5-min Rain = 0
KMD1 082130Z 32010KT 04/03 A3023 RMK A01 T00410025  RH  090%=      5-min Rain = 0
KMD1 082131Z 32013KT 04/03 A3023 RMK A01 T00410025  RH  090%=      5-min Rain = 0
KMD1 082132Z 31011KT 04/02 A3023 RMK A01 T00400024  RH  089%=      5-min Rain = 0
KMD1 082133Z 32011KT 04/02 A3023 RMK A01 T00410024  RH  089%=      5-min Rain = 0
KMD1 082134Z 32009KT 04/02 A3023 RMK A01 T00410024  RH  089%=      5-min Rain = 0
KMD1 082135Z 34012G17KT 04/03 A3023 RMK A01 T00410025  RH  089%=      5-min Rain = 0
KMD1 082136Z 34012KT 04/02 A3023 RMK A01 T00410024  RH  089%=      5-min Rain = 0
KMD1 082137Z 35015KT 04/02 A3023 RMK A01 T00410024  RH  089%=      5-min Rain = 0
KMD1 082138Z 34010KT 04/03 A3023 RMK A01 T00410025  RH  089%=      5-min Rain = 0
KMD1 082139Z 33011KT 04/03 A3023 RMK A01 T00420025  RH  089%=      5-min Rain = 0
KMD1 082140Z 34011KT 04/03 A3023 RMK A01 T00420025  RH  089%=      5-min Rain = 0
KMD1 082141Z 34011KT 04/03 A3023 RMK A01 T00410025  RH  089%=      5-min Rain = 0
KMD1 082142Z 34012G17KT 04/02 A3023 RMK A01 T00420024  RH  089%=      5-min Rain = 0
KMD1 082143Z 33011G16KT 04/02 A3023 RMK A01 T00410024  RH  089%=      5-min Rain = 0
KMD1 082144Z 34013KT 04/02 A3023 RMK A01 T00410024  RH  089%=      5-min Rain = 0
KMD1 082145Z 34012KT 04/02 A3023 RMK A01 T00410023  RH  089%=      5-min Rain = 0
KMD1 082146Z 33012KT 04/02 A3023 RMK A01 T00410024  RH  089%=      5-min Rain = 0
KMD1 082147Z 33011KT 04/02 A3023 RMK A01 T00410024  RH  089%=      5-min Rain = 0
KMD1 082148Z 32011KT 04/02 A3023 RMK A01 T00400023  RH  089%=      5-min Rain = 0
KMD1 082149Z 33010KT 04/02 A3023 RMK A01 T00400024  RH  089%=      5-min Rain = 0
KMD1 082150Z 33012KT 04/03 A3023 RMK A01 T00410025  RH  089%=      5-min Rain = 0
KMD1 082151Z 34010KT 04/03 A3023 RMK A01 T00410025  RH  089%=      5-min Rain = 0
KMD1 082152Z 33008KT 04/03 A3023 RMK A01 T00410025  RH  090%=      5-min Rain = 0
KMD1 082153Z 33011G16KT 04/03 A3023 RMK A01 T00420026  RH  090%=      5-min Rain = 0
KMD1 082154Z 34013KT 04/03 A3023 RMK A01 T00420025  RH  089%=      5-min Rain = 0
KMD1 082155Z 33010KT 04/02 A3023 RMK A01 T00420024  RH  089%=      5-min Rain = 0
KMD1 082156Z 33011KT 04/03 A3023 RMK A01 T00420025  RH  089%=      5-min Rain = 0
KMD1 082157Z 32012KT 04/03 A3023 RMK A01 T00420025  RH  089%=      5-min Rain = 0
KMD1 082158Z 33011KT 04/02 A3023 RMK A01 T00410024  RH  089%=      5-min Rain = 0
KMD1 082159Z 34011KT 04/02 A3023 RMK A01 T00410024  RH  089%=      5-min Rain = 0
KMD1 082200Z 33009KT 04/02 A3023 RMK A01 T00410024  RH  089%=      5-min Rain = 0
KMD1 082201Z 33010KT 04/03 A3023 RMK A01 T00410025  RH  089%=      5-min Rain = 0
KMD1 082202Z 33010KT 04/03 A3023 RMK A01 T00410025  RH  089%=      5-min Rain = 0
KMD1 082203Z 32010KT 04/03 A3023 RMK A01 T00410025  RH  089%=      5-min Rain = 0
KMD1 082204Z 33008KT 04/03 A3023 RMK A01 T00410025  RH  089%=      5-min Rain = 0
KMD1 082205Z 33006KT 04/03 A3023 RMK A01 T00410026  RH  090%=      5-min Rain = 0
KMD1 082206Z 33006KT 04/03 A3023 RMK A01 T00420026  RH  090%=      5-min Rain = 0
KMD1 082207Z 33010KT 04/03 A3023 RMK A01 T00420026  RH  090%=      5-min Rain = 0
KMD1 082208Z 34009KT 04/02 A3023 RMK A01 T00410024  RH  089%=      5-min Rain = 0
KMD1 082209Z 32009KT 04/03 A3023 RMK A01 T00410025  RH  089%=      5-min Rain = 0
KMD1 082210Z 33008KT 04/02 A3024 RMK A01 T00410024  RH  089%=      5-min Rain = 0
KMD1 082211Z 34007KT 04/02 A3024 RMK A01 T00410024  RH  089%=      5-min Rain = 0
KMD1 082212Z 34009G14KT 04/03 A3024 RMK A01 T00410025  RH  089%=      5-min Rain = 0
KMD1 082213Z 34011KT 04/02 A3024 RMK A01 T00410024  RH  089%=      5-min Rain = 0
KMD1 082214Z 33011KT 04/02 A3024 RMK A01 T00410024  RH  088%=      5-min Rain = 0
KMD1 082215Z 33010KT 04/02 A3024 RMK A01 T00410024  RH  088%=      5-min Rain = 0
KMD1 082216Z 32011KT 04/02 A3024 RMK A01 T00410023  RH  088%=      5-min Rain = 0
KMD1 082217Z 33014KT 04/02 A3024 RMK A01 T00410023  RH  088%=      5-min Rain = 0
KMD1 082218Z 33010KT 04/02 A3024 RMK A01 T00400022  RH  088%=      5-min Rain = 0
KMD1 082219Z 33010KT 04/02 A3024 RMK A01 T00410023  RH  088%=      5-min Rain = 0
KMD1 082220Z 32009KT 04/02 A3024 RMK A01 T00410023  RH  088%=      5-min Rain = 0
KMD1 082221Z 33010G15KT 04/02 A3024 RMK A01 T00410023  RH  088%=      5-min Rain = 0
KMD1 082222Z 32007KT 04/02 A3024 RMK A01 T00410023  RH  088%=      5-min Rain = 0
KMD1 082223Z 33011KT 04/02 A3024 RMK A01 T00410024  RH  088%=      5-min Rain = 0
KMD1 082224Z 33010KT 04/02 A3024 RMK A01 T00410023  RH  088%=      5-min Rain = 0
KMD1 082225Z 32010KT 04/02 A3024 RMK A01 T00410023  RH  088%=      5-min Rain = 0
KMD1 082226Z 33012KT 04/02 A3024 RMK A01 T00410022  RH  088%=      5-min Rain = 0
KMD1 082227Z 34011KT 04/02 A3024 RMK A01 T00410022  RH  088%=      5-min Rain = 0
KMD1 082228Z 33010KT 04/02 A3024 RMK A01 T00410022  RH  088%=      5-min Rain = 0
KMD1 082229Z 33008KT 04/02 A3024 RMK A01 T00410023  RH  088%=      5-min Rain = 0
KMD1 082230Z 32009KT 04/02 A3024 RMK A01 T00410023  RH  088%=      5-min Rain = 0
KMD1 082231Z 31011KT 04/02 A3024 RMK A01 T00400022  RH  088%=      5-min Rain = 0
KMD1 082232Z 33012KT 04/02 A3024 RMK A01 T00410022  RH  088%=      5-min Rain = 0
KMD1 082233Z 32011KT 04/02 A3024 RMK A01 T00410022  RH  088%=      5-min Rain = 0
KMD1 082234Z 32010KT 04/02 A3024 RMK A01 T00410022  RH  088%=      5-min Rain = 0
KMD1 082235Z 32011KT 04/02 A3024 RMK A01 T00410022  RH  088%=      5-min Rain = 0
KMD1 082236Z 34011KT 04/02 A3024 RMK A01 T00410022  RH  088%=      5-min Rain = 0
KMD1 082237Z 34011KT 04/02 A3024 RMK A01 T00410022  RH  088%=      5-min Rain = 0
KMD1 082238Z 34008KT 04/02 A3024 RMK A01 T00410022  RH  088%=      5-min Rain = 0
KMD1 082239Z 33009G14KT 04/02 A3024 RMK A01 T00410022  RH  088%=      5-min Rain = 0
KMD1 082240Z 33006KT 04/02 A3024 RMK A01 T00410022  RH  088%=      5-min Rain = 0
KMD1 082241Z 34009KT 04/02 A3024 RMK A01 T00410023  RH  088%=      5-min Rain = 0
KMD1 082242Z 32009KT 04/02 A3025 RMK A01 T00410022  RH  088%=      5-min Rain = 0
KMD1 082243Z 32010KT 04/02 A3025 RMK A01 T00410022  RH  088%=      5-min Rain = 0
KMD1 082244Z 34008KT 04/02 A3025 RMK A01 T00410022  RH  088%=      5-min Rain = 0
KMD1 082245Z 33010KT 04/02 A3025 RMK A01 T00410023  RH  088%=      5-min Rain = 0
KMD1 082246Z 33012KT 04/02 A3025 RMK A01 T00410021  RH  087%=      5-min Rain = 0
KMD1 082247Z 33014KT 04/02 A3025 RMK A01 T00410021  RH  087%=      5-min Rain = 0
KMD1 082248Z 34014KT 04/02 A3025 RMK A01 T00400020  RH  087%=      5-min Rain = 0
KMD1 082249Z 33013KT 04/02 A3025 RMK A01 T00400020  RH  087%=      5-min Rain = 0
KMD1 082250Z 33009KT 04/02 A3025 RMK A01 T00400020  RH  087%=      5-min Rain = 0
KMD1 082251Z 32008KT 04/02 A3025 RMK A01 T00400021  RH  087%=      5-min Rain = 0
KMD1 082252Z 33010KT 04/02 A3025 RMK A01 T00400021  RH  087%=      5-min Rain = 0
KMD1 082253Z 32013KT 04/02 A3025 RMK A01 T00400021  RH  087%=      5-min Rain = 0
KMD1 082254Z 33011KT 04/02 A3025 RMK A01 T00400019  RH  086%=      5-min Rain = 0
KMD1 082255Z 33008KT 04/02 A3025 RMK A01 T00400019  RH  086%=      5-min Rain = 0
KMD1 082256Z 33007KT 04/02 A3025 RMK A01 T00400019  RH  087%=      5-min Rain = 0
KMD1 082257Z 34010KT 04/02 A3025 RMK A01 T00400019  RH  087%=      5-min Rain = 0
KMD1 082258Z 33011KT 04/02 A3025 RMK A01 T00400019  RH  086%=      5-min Rain = 0
KMD1 082259Z 33010KT 04/02 A3025 RMK A01 T00400019  RH  086%=      5-min Rain = 0
KMD1 082300Z 33010KT 04/02 A3025 RMK A01 T00400019  RH  087%=      5-min Rain = 0
KMD1 082301Z 32010KT 04/02 A3025 RMK A01 T00400020  RH  087%=      5-min Rain = 0
KMD1 082302Z 33012KT 04/02 A3025 RMK A01 T00400020  RH  087%=      5-min Rain = 0
KMD1 082303Z 33012KT 04/02 A3025 RMK A01 T00390019  RH  087%=      5-min Rain = 0
KMD1 082304Z 32011KT 04/02 A3025 RMK A01 T00390019  RH  087%=      5-min Rain = 0
KMD1 082305Z 32012KT 04/02 A3025 RMK A01 T00390019  RH  087%=      5-min Rain = 0
KMD1 082306Z 32009KT 04/02 A3025 RMK A01 T00390020  RH  087%=      5-min Rain = 0
KMD1 082307Z 33010KT 04/02 A3025 RMK A01 T00390020  RH  088%=      5-min Rain = 0
KMD1 082308Z 32009KT 04/02 A3025 RMK A01 T00390019  RH  087%=      5-min Rain = 0
KMD1 082309Z 33010KT 04/02 A3025 RMK A01 T00390019  RH  087%=      5-min Rain = 0
KMD1 082310Z 33013KT 04/02 A3025 RMK A01 T00390019  RH  087%=      5-min Rain = 0
KMD1 082311Z 33012KT 04/02 A3025 RMK A01 T00380019  RH  087%=      5-min Rain = 0
KMD1 082312Z 32010KT 04/02 A3025 RMK A01 T00390019  RH  087%=      5-min Rain = 0
KMD1 082313Z 33010KT 04/02 A3025 RMK A01 T00380019  RH  087%=      5-min Rain = 0
KMD1 082314Z 32010G15KT 04/02 A3025 RMK A01 T00380019  RH  087%=      5-min Rain = 0
KMD1 082315Z 32013KT 04/02 A3025 RMK A01 T00380018  RH  087%=      5-min Rain = 0
KMD1 082316Z 32011KT 04/02 A3025 RMK A01 T00380018  RH  086%=      5-min Rain = 0
KMD1 082317Z 31013G18KT 04/02 A3025 RMK A01 T00380018  RH  087%=      5-min Rain = 0
KMD1 082318Z 32012KT 04/02 A3025 RMK A01 T00380017  RH  086%=      5-min Rain = 0
KMD1 082319Z 32012KT 04/02 A3025 RMK A01 T00380017  RH  086%=      5-min Rain = 0
KMD1 082320Z 33011KT 04/02 A3025 RMK A01 T00380017  RH  086%=      5-min Rain = 0
KMD1 082321Z 32012KT 04/02 A3025 RMK A01 T00380016  RH  086%=      5-min Rain = 0
KMD1 082322Z 33011KT 04/02 A3025 RMK A01 T00370016  RH  086%=      5-min Rain = 0
KMD1 082323Z 32012KT 04/02 A3025 RMK A01 T00370016  RH  086%=      5-min Rain = 0
KMD1 082324Z 33011KT 04/02 A3025 RMK A01 T00370016  RH  086%=      5-min Rain = 0
KMD1 082325Z 34011KT 04/02 A3025 RMK A01 T00370016  RH  086%=      5-min Rain = 0
KMD1 082326Z 33012KT 04/02 A3025 RMK A01 T00370015  RH  086%=      5-min Rain = 0
KMD1 082327Z 33009KT 04/02 A3025 RMK A01 T00370015  RH  085%=      5-min Rain = 0
KMD1 082328Z 32009KT 04/02 A3025 RMK A01 T00370016  RH  086%=      5-min Rain = 0
KMD1 082329Z 33011KT 04/02 A3025 RMK A01 T00370016  RH  086%=      5-min Rain = 0
KMD1 082330Z 32012KT 04/02 A3025 RMK A01 T00370015  RH  086%=      5-min Rain = 0
KMD1 082331Z 32013KT 04/02 A3025 RMK A01 T00370015  RH  086%=      5-min Rain = 0
KMD1 082332Z 31009KT 04/01 A3025 RMK A01 T00360014  RH  085%=      5-min Rain = 0
KMD1 082333Z 32007KT 04/02 A3025 RMK A01 T00360015  RH  086%=      5-min Rain = 0
KMD1 082334Z 32007KT 04/02 A3025 RMK A01 T00370016  RH  086%=      5-min Rain = 0
KMD1 082335Z 33009KT 04/02 A3025 RMK A01 T00360016  RH  086%=      5-min Rain = 0
KMD1 082336Z 33007KT 04/02 A3025 RMK A01 T00360015  RH  086%=      5-min Rain = 0
KMD1 082337Z 32008KT 04/02 A3025 RMK A01 T00370016  RH  086%=      5-min Rain = 0
KMD1 082338Z 32008KT 04/02 A3025 RMK A01 T00370016  RH  086%=      5-min Rain = 0
KMD1 082339Z 33007KT 04/02 A3025 RMK A01 T00360016  RH  086%=      5-min Rain = 0
KMD1 082340Z 32007KT 04/02 A3025 RMK A01 T00360016  RH  086%=      5-min Rain = 0
KMD1 082341Z 32008KT 04/02 A3025 RMK A01 T00370016  RH  086%=      5-min Rain = 0
KMD1 082342Z 32009KT 04/02 A3025 RMK A01 T00370016  RH  087%=      5-min Rain = 0
KMD1 082343Z 33009KT 04/02 A3025 RMK A01 T00360016  RH  087%=      5-min Rain = 0
KMD1 082344Z 33008KT 04/02 A3026 RMK A01 T00360016  RH  087%=      5-min Rain = 0
KMD1 082345Z 32009KT 04/02 A3026 RMK A01 T00360016  RH  087%=      5-min Rain = 0
KMD1 082346Z 32011KT 04/02 A3026 RMK A01 T00360017  RH  087%=      5-min Rain = 0
KMD1 082347Z 31009KT 04/02 A3026 RMK A01 T00360016  RH  087%=      5-min Rain = 0
KMD1 082348Z 31009KT 04/02 A3026 RMK A01 T00360016  RH  087%=      5-min Rain = 0
KMD1 082349Z 32008KT 04/02 A3026 RMK A01 T00360016  RH  087%=      5-min Rain = 0
KMD1 082350Z 33008KT 04/02 A3026 RMK A01 T00360017  RH  087%=      5-min Rain = 0
KMD1 082351Z 33008KT 04/02 A3026 RMK A01 T00360016  RH  087%=      5-min Rain = 0
KMD1 082352Z 34008KT 04/02 A3026 RMK A01 T00360016  RH  087%=      5-min Rain = 0
KMD1 082353Z 32005KT 04/02 A3026 RMK A01 T00360017  RH  087%=      5-min Rain = 0
KMD1 082354Z 32006KT 04/02 A3026 RMK A01 T00360017  RH  087%=      5-min Rain = 0
KMD1 082355Z 32007KT 04/02 A3026 RMK A01 T00360017  RH  088%=      5-min Rain = 0
KMD1 082356Z 32006KT 04/02 A3026 RMK A01 T00360017  RH  087%=      5-min Rain = 0
KMD1 082357Z 32007KT 04/02 A3026 RMK A01 T00360017  RH  088%=      5-min Rain = 0
KMD1 082358Z 32007G13KT 04/02 A3026 RMK A01 T00350017  RH  088%=      5-min Rain = 0
KMD1 082359Z 32007KT 04/02 A3026 RMK A01 T00360017  RH  088%=      5-min Rain = 0
KMD1 090000Z 32008KT 04/02 A3026 RMK A01 T00350016  RH  087%=      5-min Rain = 0
KMD1 090001Z 32007KT 04/02 A3026 RMK A01 T00350016  RH  088%=      5-min Rain = 0
KMD1 090002Z 33005KT 04/02 A3026 RMK A01 T00350017  RH  088%=      5-min Rain = 0
KMD1 090003Z 33006KT 04/02 A3026 RMK A01 T00350017  RH  088%=      5-min Rain = 0
KMD1 090004Z 33005KT 04/02 A3026 RMK A01 T00350017  RH  088%=      5-min Rain = 0
KMD1 090005Z 33005KT 04/02 A3026 RMK A01 T00350017  RH  088%=      5-min Rain = 0
KMD1 090006Z 33005KT 04/02 A3026 RMK A01 T00350018  RH  088%=      5-min Rain = 0
KMD1 090007Z 33004KT 04/02 A3026 RMK A01 T00350018  RH  088%=      5-min Rain = 0
KMD1 090008Z 32003KT 04/02 A3026 RMK A01 T00350017  RH  088%=      5-min Rain = 0
KMD1 090009Z 33005KT 04/02 A3026 RMK A01 T00350017  RH  088%=      5-min Rain = 0
KMD1 090010Z 33005KT 04/02 A3026 RMK A01 T00350017  RH  088%=      5-min Rain = 0
KMD1 090011Z 34006KT 04/02 A3026 RMK A01 T00350018  RH  089%=      5-min Rain = 0
KMD1 090012Z 33006KT 03/02 A3026 RMK A01 T00340017  RH  088%=      5-min Rain = 0
KMD1 090013Z 30005KT 03/02 A3026 RMK A01 T00340017  RH  089%=      5-min Rain = 0
KMD1 090014Z 32007KT 03/02 A3027 RMK A01 T00340017  RH  089%=      5-min Rain = 0
KMD1 090015Z 33007KT 03/02 A3027 RMK A01 T00340017  RH  089%=      5-min Rain = 0
KMD1 090016Z 32008KT 03/02 A3027 RMK A01 T00340017  RH  088%=      5-min Rain = 0
KMD1 090017Z 32009KT 03/02 A3027 RMK A01 T00340017  RH  088%=      5-min Rain = 0
KMD1 090018Z 33008KT 03/02 A3027 RMK A01 T00340017  RH  088%=      5-min Rain = 0
KMD1 090019Z 32009KT 03/02 A3027 RMK A01 T00340017  RH  088%=      5-min Rain = 0
KMD1 090020Z 32007KT 03/02 A3027 RMK A01 T00340017  RH  088%=      5-min Rain = 0
KMD1 090021Z 33007KT 03/02 A3027 RMK A01 T00340017  RH  089%=      5-min Rain = 0
KMD1 090022Z 33008KT 04/02 A3027 RMK A01 T00350018  RH  089%=      5-min Rain = 0
KMD1 090023Z 31008KT 03/02 A3027 RMK A01 T00340017  RH  088%=      5-min Rain = 0
KMD1 090024Z 32009KT 03/02 A3027 RMK A01 T00340016  RH  088%=      5-min Rain = 0
KMD1 090025Z 32008KT 03/02 A3027 RMK A01 T00340016  RH  088%=      5-min Rain = 0
KMD1 090026Z 32008KT 03/02 A3027 RMK A01 T00340016  RH  088%=      5-min Rain = 0
KMD1 090027Z 32008KT 03/02 A3027 RMK A01 T00340017  RH  089%=      5-min Rain = 0
KMD1 090028Z 32008KT 03/02 A3027 RMK A01 T00340017  RH  089%=      5-min Rain = 0
KMD1 090029Z 31009KT 03/02 A3027 RMK A01 T00340017  RH  089%=      5-min Rain = 0
KMD1 090030Z 31009KT 03/02 A3027 RMK A01 T00340017  RH  089%=      5-min Rain = 0
KMD1 090031Z 31009KT 03/02 A3027 RMK A01 T00330016  RH  089%=      5-min Rain = 0
KMD1 090032Z 32008KT 03/02 A3027 RMK A01 T00340017  RH  089%=      5-min Rain = 0
KMD1 090033Z 31010KT 03/02 A3027 RMK A01 T00330017  RH  089%=      5-min Rain = 0
KMD1 090034Z 32008KT 03/02 A3028 RMK A01 T00330016  RH  089%=      5-min Rain = 0
KMD1 090035Z 32007KT 03/02 A3028 RMK A01 T00330017  RH  089%=      5-min Rain = 0
KMD1 090036Z 31007KT 03/02 A3028 RMK A01 T00330017  RH  089%=      5-min Rain = 0
KMD1 090037Z 32007KT 03/02 A3028 RMK A01 T00330017  RH  089%=      5-min Rain = 0
KMD1 090038Z 32009KT 03/02 A3028 RMK A01 T00330018  RH  089%=      5-min Rain = 0
KMD1 090039Z 32010KT 03/02 A3028 RMK A01 T00330017  RH  089%=      5-min Rain = 0
KMD1 090040Z 32008KT 03/02 A3028 RMK A01 T00330017  RH  089%=      5-min Rain = 0
KMD1 090041Z 32010KT 03/02 A3028 RMK A01 T00330017  RH  089%=      5-min Rain = 0
KMD1 090042Z 32008KT 03/02 A3028 RMK A01 T00330016  RH  089%=      5-min Rain = 0
KMD1 090043Z 32011KT 03/02 A3028 RMK A01 T00330017  RH  089%=      5-min Rain = 0
KMD1 090044Z 32010KT 03/02 A3028 RMK A01 T00330017  RH  089%=      5-min Rain = 0
KMD1 090045Z 32008KT 03/02 A3028 RMK A01 T00330017  RH  089%=      5-min Rain = 0
KMD1 090046Z 32008KT 03/02 A3028 RMK A01 T00340017  RH  089%=      5-min Rain = 0
KMD1 090047Z 31009KT 03/02 A3028 RMK A01 T00330017  RH  089%=      5-min Rain = 0
KMD1 090048Z 32009KT 03/02 A3028 RMK A01 T00330017  RH  089%=      5-min Rain = 0
KMD1 090049Z 32008KT 03/02 A3028 RMK A01 T00330017  RH  089%=      5-min Rain = 0
KMD1 090050Z 33007KT 03/02 A3028 RMK A01 T00330017  RH  089%=      5-min Rain = 0
KMD1 090051Z 32007KT 03/02 A3028 RMK A01 T00330017  RH  089%=      5-min Rain = 0
KMD1 090052Z 32010KT 03/02 A3028 RMK A01 T00330017  RH  089%=      5-min Rain = 0
KMD1 090053Z 32009KT 03/02 A3029 RMK A01 T00330017  RH  089%=      5-min Rain = 0
KMD1 090054Z 32009KT 03/02 A3029 RMK A01 T00330017  RH  089%=      5-min Rain = 0
KMD1 090055Z 32011KT 03/02 A3029 RMK A01 T00330016  RH  089%=      5-min Rain = 0
KMD1 090056Z 32010KT 03/02 A3029 RMK A01 T00330016  RH  088%=      5-min Rain = 0
KMD1 090057Z 32008KT 03/02 A3029 RMK A01 T00330016  RH  088%=      5-min Rain = 0
KMD1 090058Z 34008KT 03/02 A3029 RMK A01 T00330016  RH  088%=      5-min Rain = 0
KMD1 090059Z 33008KT 03/02 A3029 RMK A01 T00330016  RH  088%=      5-min Rain = 0
KMD1 090100Z 33009KT 03/02 A3029 RMK A01 T00330015  RH  088%=      5-min Rain = 0
KMD1 090101Z 32008KT 03/02 A3029 RMK A01 T00330015  RH  088%=      5-min Rain = 0
KMD1 090102Z 33007KT 03/02 A3029 RMK A01 T00330015  RH  088%=      5-min Rain = 0
KMD1 090103Z 34009KT 03/02 A3029 RMK A01 T00330016  RH  088%=      5-min Rain = 0
KMD1 090104Z 34013KT 03/02 A3029 RMK A01 T00330015  RH  088%=      5-min Rain = 0
KMD1 090105Z 32010KT 03/01 A3029 RMK A01 T00330014  RH  087%=      5-min Rain = 0
KMD1 090106Z 32011KT 03/01 A3029 RMK A01 T00330014  RH  087%=      5-min Rain = 0
KMD1 090107Z 33009KT 03/01 A3029 RMK A01 T00330014  RH  087%=      5-min Rain = 0
KMD1 090108Z 33008KT 03/01 A3029 RMK A01 T00330014  RH  087%=      5-min Rain = 0
KMD1 090109Z 33007KT 03/02 A3029 RMK A01 T00330015  RH  088%=      5-min Rain = 0
KMD1 090110Z 33006KT 03/02 A3029 RMK A01 T00330015  RH  088%=      5-min Rain = 0
KMD1 090111Z 33009KT 03/02 A3029 RMK A01 T00330015  RH  088%=      5-min Rain = 0
KMD1 090112Z 33008KT 03/02 A3029 RMK A01 T00330015  RH  088%=      5-min Rain = 0
KMD1 090113Z 33008KT 03/02 A3029 RMK A01 T00330015  RH  088%=      5-min Rain = 0
KMD1 090114Z 32007KT 03/02 A3029 RMK A01 T00340015  RH  088%=      5-min Rain = 0
KMD1 090115Z 32007KT 03/02 A3029 RMK A01 T00330015  RH  088%=      5-min Rain = 0
KMD1 090116Z 32007KT 03/02 A3029 RMK A01 T00330015  RH  088%=      5-min Rain = 0
KMD1 090117Z 33008KT 03/02 A3029 RMK A01 T00330016  RH  088%=      5-min Rain = 0
KMD1 090118Z 32007KT 03/02 A3029 RMK A01 T00340016  RH  088%=      5-min Rain = 0
KMD1 090119Z 32008KT 03/02 A3029 RMK A01 T00330016  RH  088%=      5-min Rain = 0
KMD1 090120Z 33008KT 03/02 A3029 RMK A01 T00330016  RH  088%=      5-min Rain = 0
KMD1 090121Z 34007KT 03/02 A3029 RMK A01 T00330015  RH  088%=      5-min Rain = 0
KMD1 090122Z 34009KT 03/02 A3029 RMK A01 T00330015  RH  088%=      5-min Rain = 0
KMD1 090123Z 33006KT 03/02 A3029 RMK A01 T00330015  RH  088%=      5-min Rain = 0
KMD1 090124Z 32006KT 03/02 A3029 RMK A01 T00330016  RH  088%=      5-min Rain = 0
KMD1 090125Z 34006KT 03/02 A3029 RMK A01 T00330016  RH  089%=      5-min Rain = 0
KMD1 090126Z 35006KT 03/02 A3029 RMK A01 T00330015  RH  088%=      5-min Rain = 0
KMD1 090127Z 34006KT 03/02 A3029 RMK A01 T00320015  RH  088%=      5-min Rain = 0
KMD1 090128Z 34006KT 03/02 A3029 RMK A01 T00320015  RH  089%=      5-min Rain = 0
KMD1 090129Z 34007KT 03/02 A3029 RMK A01 T00330016  RH  089%=      5-min Rain = 0
KMD1 090130Z 33005KT 03/02 A3029 RMK A01 T00320015  RH  089%=      5-min Rain = 0
KMD1 090131Z 34006KT 03/02 A3029 RMK A01 T00320015  RH  089%=      5-min Rain = 0
KMD1 090132Z 34005KT 03/02 A3028 RMK A01 T00320015  RH  089%=      5-min Rain = 0
KMD1 090133Z 34006KT 03/02 A3028 RMK A01 T00320015  RH  089%=      5-min Rain = 0
KMD1 090134Z 33008KT 03/02 A3028 RMK A01 T00320015  RH  089%=      5-min Rain = 0
KMD1 090135Z 33005KT 03/02 A3028 RMK A01 T00320015  RH  089%=      5-min Rain = 0
KMD1 090136Z 33005KT 03/01 A3028 RMK A01 T00310014  RH  089%=      5-min Rain = 0
KMD1 090137Z 33005KT 03/02 A3028 RMK A01 T00310015  RH  089%=      5-min Rain = 0
KMD1 090138Z 33005KT 03/02 A3028 RMK A01 T00310015  RH  089%=      5-min Rain = 0
KMD1 090139Z 33005KT 03/02 A3028 RMK A01 T00310015  RH  089%=      5-min Rain = 0
KMD1 090140Z 32005KT 03/02 A3028 RMK A01 T00310015  RH  089%=      5-min Rain = 0
KMD1 090141Z 32005KT 03/02 A3028 RMK A01 T00310015  RH  089%=      5-min Rain = 0
KMD1 090142Z 33006KT 03/02 A3028 RMK A01 T00310015  RH  089%=      5-min Rain = 0
KMD1 090143Z 33007KT 03/02 A3028 RMK A01 T00310015  RH  089%=      5-min Rain = 0
KMD1 090144Z 32006KT 03/01 A3028 RMK A01 T00310014  RH  089%=      5-min Rain = 0
KMD1 090145Z 32005KT 03/02 A3029 RMK A01 T00300015  RH  089%=      5-min Rain = 0
KMD1 090146Z 32005KT 03/02 A3029 RMK A01 T00310015  RH  089%=      5-min Rain = 0
KMD1 090147Z 32006KT 03/02 A3029 RMK A01 T00300015  RH  090%=      5-min Rain = 0
KMD1 090148Z 31007KT 03/02 A3029 RMK A01 T00300015  RH  090%=      5-min Rain = 0
KMD1 090149Z 32007KT 03/02 A3029 RMK A01 T00300015  RH  090%=      5-min Rain = 0
KMD1 090150Z 32006KT 03/02 A3029 RMK A01 T00300015  RH  090%=      5-min Rain = 0
KMD1 090151Z 31006KT 03/02 A3029 RMK A01 T00300015  RH  090%=      5-min Rain = 0
KMD1 090152Z 31006KT 03/02 A3029 RMK A01 T00300015  RH  090%=      5-min Rain = 0
KMD1 090153Z 32006KT 03/02 A3029 RMK A01 T00300015  RH  090%=      5-min Rain = 0
KMD1 090154Z 32005KT 03/02 A3029 RMK A01 T00300015  RH  090%=      5-min Rain = 0
KMD1 090155Z 31006KT 03/02 A3029 RMK A01 T00300015  RH  090%=      5-min Rain = 0
KMD1 090156Z 33006KT 03/02 A3029 RMK A01 T00300015  RH  090%=      5-min Rain = 0
KMD1 090157Z 32005KT 03/02 A3029 RMK A01 T00300015  RH  090%=      5-min Rain = 0
KMD1 090158Z 32006KT 03/02 A3029 RMK A01 T00300015  RH  090%=      5-min Rain = 0
KMD1 090159Z 32006KT 03/01 A3029 RMK A01 T00300014  RH  090%=      5-min Rain = 0
KMD1 090200Z 33006KT 03/01 A3029 RMK A01 T00300014  RH  090%=      5-min Rain = 0
KMD1 090201Z 32005KT 03/02 A3029 RMK A01 T00300015  RH  090%=      5-min Rain = 0
KMD1 090202Z 33006KT 03/02 A3029 RMK A01 T00300015  RH  090%=      5-min Rain = 0
KMD1 090203Z 33006KT 03/02 A3029 RMK A01 T00300015  RH  090%=      5-min Rain = 0
KMD1 090204Z 33006KT 03/02 A3029 RMK A01 T00300015  RH  090%=      5-min Rain = 0
KMD1 090205Z 33004KT 03/02 A3029 RMK A01 T00300015  RH  090%=      5-min Rain = 0
KMD1 090206Z 34005KT 03/02 A3029 RMK A01 T00300015  RH  090%=      5-min Rain = 0
KMD1 090207Z 34005KT 03/02 A3029 RMK A01 T00300015  RH  090%=      5-min Rain = 0
KMD1 090208Z 33005KT 03/02 A3029 RMK A01 T00300015  RH  090%=      5-min Rain = 0
KMD1 090209Z 34004KT 03/02 A3029 RMK A01 T00300015  RH  090%=      5-min Rain = 0
KMD1 090210Z 34003KT 03/02 A3029 RMK A01 T00300015  RH  090%=      5-min Rain = 0
KMD1 090211Z 35004KT 03/02 A3029 RMK A01 T00300015  RH  090%=      5-min Rain = 0
KMD1 090212Z 35005KT 03/02 A3029 RMK A01 T00300015  RH  090%=      5-min Rain = 0
KMD1 090213Z 34004KT 03/02 A3029 RMK A01 T00300015  RH  090%=      5-min Rain = 0
KMD1 090214Z 34004KT 03/02 A3029 RMK A01 T00300015  RH  090%=      5-min Rain = 0
KMD1 090215Z 34004KT 03/02 A3029 RMK A01 T00300015  RH  090%=      5-min Rain = 0
KMD1 090216Z 32004KT 03/02 A3029 RMK A01 T00300015  RH  090%=      5-min Rain = 0
KMD1 090217Z 33006KT 03/02 A3029 RMK A01 T00300015  RH  090%=      5-min Rain = 0
KMD1 090218Z 34005KT 03/02 A3029 RMK A01 T00300015  RH  090%=      5-min Rain = 0
KMD1 090219Z 34004KT 03/02 A3029 RMK A01 T00300015  RH  090%=      5-min Rain = 0
KMD1 090220Z 33007KT 03/02 A3029 RMK A01 T00300015  RH  090%=      5-min Rain = 0
KMD1 090221Z 34007KT 03/02 A3029 RMK A01 T00300015  RH  090%=      5-min Rain = 0
KMD1 090222Z 34007KT 03/02 A3029 RMK A01 T00300015  RH  090%=      5-min Rain = 0
KMD1 090223Z 34005KT 03/02 A3029 RMK A01 T00290015  RH  090%=      5-min Rain = 0
KMD1 090224Z 35004KT 03/02 A3029 RMK A01 T00300015  RH  090%=      5-min Rain = 0
KMD1 090225Z 35005KT 03/02 A3029 RMK A01 T00300015  RH  090%=      5-min Rain = 0
KMD1 090226Z 35006KT 03/02 A3029 RMK A01 T00300015  RH  090%=      5-min Rain = 0
KMD1 090227Z 35007KT 03/02 A3029 RMK A01 T00300015  RH  090%=      5-min Rain = 0
KMD1 090228Z 35011KT 03/02 A3029 RMK A01 T00300015  RH  090%=      5-min Rain = 0
KMD1 090229Z 35010KT 03/01 A3029 RMK A01 T00290014  RH  090%=      5-min Rain = 0
KMD1 090230Z 35010KT 03/01 A3029 RMK A01 T00290013  RH  089%=      5-min Rain = 0
KMD1 090231Z 35010KT 03/01 A3029 RMK A01 T00290013  RH  089%=      5-min Rain = 0
KMD1 090232Z 35011KT 03/01 A3029 RMK A01 T00290013  RH  089%=      5-min Rain = 0
KMD1 090233Z 34008KT 03/01 A3029 RMK A01 T00290013  RH  089%=      5-min Rain = 0
KMD1 090234Z 34007KT 03/01 A3029 RMK A01 T00290013  RH  089%=      5-min Rain = 0
KMD1 090235Z 34006KT 03/01 A3029 RMK A01 T00290012  RH  089%=      5-min Rain = 0
KMD1 090236Z 34008KT 03/01 A3029 RMK A01 T00290013  RH  089%=      5-min Rain = 0
KMD1 090237Z 35009KT 03/01 A3029 RMK A01 T00290013  RH  089%=      5-min Rain = 0
KMD1 090238Z 34008KT 03/01 A3029 RMK A01 T00290013  RH  089%=      5-min Rain = 0
KMD1 090239Z 33008KT 03/01 A3029 RMK A01 T00290013  RH  089%=      5-min Rain = 0
KMD1 090240Z 33007KT 03/01 A3029 RMK A01 T00290013  RH  089%=      5-min Rain = 0
KMD1 090241Z 34007KT 03/01 A3029 RMK A01 T00290013  RH  089%=      5-min Rain = 0
KMD1 090242Z 33006KT 03/01 A303 RMK A01 T00290013  RH  089%=      5-min Rain = 0
KMD1 090243Z 32007KT 03/01 A303 RMK A01 T00290013  RH  089%=      5-min Rain = 0
KMD1 090244Z 32006KT 03/01 A303 RMK A01 T00290013  RH  089%=      5-min Rain = 0
KMD1 090245Z 31006KT 03/01 A303 RMK A01 T00290012  RH  089%=      5-min Rain = 0
KMD1 090246Z 32008KT 03/01 A3031 RMK A01 T00290012  RH  089%=      5-min Rain = 0
KMD1 090247Z 31008KT 03/01 A3031 RMK A01 T00290012  RH  089%=      5-min Rain = 0
KMD1 090248Z 33009KT 03/01 A3031 RMK A01 T00290012  RH  089%=      5-min Rain = 0
KMD1 090249Z 33008KT 03/01 A3031 RMK A01 T00290012  RH  089%=      5-min Rain = 0
KMD1 090250Z 32008KT 03/01 A3031 RMK A01 T00290012  RH  089%=      5-min Rain = 0
KMD1 090251Z 32010KT 03/01 A3031 RMK A01 T00290012  RH  088%=      5-min Rain = 0
KMD1 090252Z 32005KT 03/01 A3031 RMK A01 T00290012  RH  088%=      5-min Rain = 0
KMD1 090253Z 32006KT 03/01 A3031 RMK A01 T00290012  RH  088%=      5-min Rain = 0
KMD1 090254Z 32005KT 03/01 A3031 RMK A01 T00290012  RH  088%=      5-min Rain = 0
KMD1 090255Z 32008KT 03/01 A3031 RMK A01 T00300013  RH  089%=      5-min Rain = 0
KMD1 090256Z 33006KT 03/01 A3031 RMK A01 T00300012  RH  088%=      5-min Rain = 0
KMD1 090257Z 33008KT 03/01 A303 RMK A01 T00300012  RH  088%=      5-min Rain = 0
KMD1 090258Z 34008KT 03/01 A303 RMK A01 T00300012  RH  088%=      5-min Rain = 0
KMD1 090259Z 34007KT 03/01 A303 RMK A01 T00300012  RH  088%=      5-min Rain = 0
KMD1 090300Z 33006KT 03/01 A303 RMK A01 T00300012  RH  088%=      5-min Rain = 0
KMD1 090301Z 34008KT 03/01 A303 RMK A01 T00300012  RH  088%=      5-min Rain = 0
KMD1 090302Z 33007KT 03/01 A303 RMK A01 T00300012  RH  088%=      5-min Rain = 0
KMD1 090303Z 35005KT 03/01 A303 RMK A01 T00300013  RH  089%=      5-min Rain = 0
KMD1 090304Z 34006KT 03/01 A303 RMK A01 T00300013  RH  089%=      5-min Rain = 0
KMD1 090305Z 34007KT 03/01 A303 RMK A01 T00300013  RH  089%=      5-min Rain = 0
KMD1 090306Z 33006KT 03/01 A303 RMK A01 T00290013  RH  089%=      5-min Rain = 0
KMD1 090307Z 34005KT 03/01 A303 RMK A01 T00290013  RH  089%=      5-min Rain = 0
KMD1 090308Z 33006KT 03/01 A303 RMK A01 T00290013  RH  089%=      5-min Rain = 0
KMD1 090309Z 33007KT 03/01 A303 RMK A01 T00290013  RH  089%=      5-min Rain = 0
KMD1 090310Z 33007KT 03/01 A303 RMK A01 T00290013  RH  089%=      5-min Rain = 0
KMD1 090311Z 33006KT 03/01 A303 RMK A01 T00290013  RH  089%=      5-min Rain = 0
KMD1 090312Z 32005KT 03/01 A303 RMK A01 T00290012  RH  089%=      5-min Rain = 0
KMD1 090313Z 33009KT 03/01 A303 RMK A01 T00290013  RH  089%=      5-min Rain = 0
KMD1 090314Z 32007KT 03/01 A303 RMK A01 T00290013  RH  089%=      5-min Rain = 0
KMD1 090315Z 33006KT 03/01 A303 RMK A01 T00290012  RH  089%=      5-min Rain = 0
KMD1 090316Z 32006KT 03/01 A303 RMK A01 T00290012  RH  089%=      5-min Rain = 0
KMD1 090317Z 32009KT 03/01 A303 RMK A01 T00290012  RH  089%=      5-min Rain = 0
KMD1 090318Z 32010KT 03/01 A303 RMK A01 T00290012  RH  088%=      5-min Rain = 0
KMD1 090319Z 32009KT 03/01 A303 RMK A01 T00290011  RH  088%=      5-min Rain = 0
KMD1 090320Z 32007KT 03/01 A303 RMK A01 T00290011  RH  088%=      5-min Rain = 0
KMD1 090321Z 33006KT 03/01 A303 RMK A01 T00290011  RH  088%=      5-min Rain = 0
KMD1 090322Z 33006KT 03/01 A3031 RMK A01 T00290011  RH  088%=      5-min Rain = 0
KMD1 090323Z 32007KT 03/01 A3031 RMK A01 T00290011  RH  088%=      5-min Rain = 0
KMD1 090324Z 33007KT 03/01 A3031 RMK A01 T00290011  RH  088%=      5-min Rain = 0
KMD1 090325Z 34009KT 03/01 A3031 RMK A01 T00290011  RH  088%=      5-min Rain = 0
KMD1 090326Z 35009KT 03/01 A3031 RMK A01 T00290010  RH  088%=      5-min Rain = 0
KMD1 090327Z 33008KT 03/01 A3031 RMK A01 T00290010  RH  088%=      5-min Rain = 0
KMD1 090328Z 33006KT 03/01 A3031 RMK A01 T00290010  RH  088%=      5-min Rain = 0
KMD1 090329Z 33006KT 03/01 A3031 RMK A01 T00290011  RH  088%=      5-min Rain = 0
KMD1 090330Z 34005KT 03/01 A3031 RMK A01 T00290011  RH  088%=      5-min Rain = 0
KMD1 090331Z 33008KT 03/01 A3031 RMK A01 T00290011  RH  088%=      5-min Rain = 0
KMD1 090332Z 34009KT 03/01 A3031 RMK A01 T00290011  RH  088%=      5-min Rain = 0
KMD1 090333Z 34011KT 03/01 A3031 RMK A01 T00290010  RH  088%=      5-min Rain = 0
KMD1 090334Z 34009G14KT 03/01 A3031 RMK A01 T00280009  RH  087%=      5-min Rain = 0
KMD1 090335Z 33012KT 03/01 A3031 RMK A01 T00290009  RH  087%=      5-min Rain = 0
KMD1 090336Z 34009KT 03/01 A3031 RMK A01 T00280009  RH  087%=      5-min Rain = 0
KMD1 090337Z 33008KT 03/01 A3031 RMK A01 T00280009  RH  087%=      5-min Rain = 0
KMD1 090338Z 34006KT 03/01 A3031 RMK A01 T00280009  RH  087%=      5-min Rain = 0
KMD1 090339Z 34009KT 03/01 A3031 RMK A01 T00280009  RH  087%=      5-min Rain = 0
KMD1 090340Z 34008KT 03/01 A3031 RMK A01 T00280009  RH  087%=      5-min Rain = 0
KMD1 090341Z 33007KT 03/01 A3031 RMK A01 T00280009  RH  088%=      5-min Rain = 0
KMD1 090342Z 33007KT 03/01 A3031 RMK A01 T00280009  RH  088%=      5-min Rain = 0
KMD1 090343Z 33008KT 03/01 A3031 RMK A01 T00280010  RH  088%=      5-min Rain = 0
KMD1 090344Z 33008KT 03/01 A3031 RMK A01 T00270009  RH  088%=      5-min Rain = 0
KMD1 090345Z 34008KT 03/01 A3031 RMK A01 T00270009  RH  088%=      5-min Rain = 0
KMD1 090346Z 34008KT 03/01 A3031 RMK A01 T00270009  RH  088%=      5-min Rain = 0
KMD1 090347Z 34007KT 03/01 A3031 RMK A01 T00270009  RH  088%=      5-min Rain = 0
KMD1 090348Z 35008KT 03/01 A3031 RMK A01 T00270009  RH  088%=      5-min Rain = 0
KMD1 090349Z 34009KT 03/01 A3031 RMK A01 T00270009  RH  088%=      5-min Rain = 0
KMD1 090350Z 33008KT 03/01 A3031 RMK A01 T00270008  RH  088%=      5-min Rain = 0
KMD1 090351Z 33008KT 03/01 A3031 RMK A01 T00270008  RH  088%=      5-min Rain = 0
KMD1 090352Z 34007KT 03/01 A3031 RMK A01 T00260008  RH  088%=      5-min Rain = 0
KMD1 090353Z 34008KT 03/01 A3031 RMK A01 T00260008  RH  088%=      5-min Rain = 0
KMD1 090354Z 34008KT 03/01 A3031 RMK A01 T00260008  RH  088%=      5-min Rain = 0
KMD1 090355Z 35007KT 03/01 A3031 RMK A01 T00260008  RH  088%=      5-min Rain = 0
KMD1 090356Z 35008KT 03/01 A3031 RMK A01 T00260008  RH  088%=      5-min Rain = 0
KMD1 090357Z 34009KT 03/01 A3031 RMK A01 T00260008  RH  088%=      5-min Rain = 0
KMD1 090358Z 35010KT 03/01 A3031 RMK A01 T00260007  RH  088%=      5-min Rain = 0
KMD1 090359Z 35010KT 03/01 A3031 RMK A01 T00250007  RH  088%=      5-min Rain = 0
KMD1 090400Z 34008KT 03/01 A3032 RMK A01 T00250007  RH  088%=      5-min Rain = 0
KMD1 090401Z 34008KT 03/01 A3032 RMK A01 T00250007  RH  088%=      5-min Rain = 0
KMD1 090402Z 34009KT 03/01 A3032 RMK A01 T00250007  RH  088%=      5-min Rain = 0
KMD1 090403Z 35008KT 03/01 A3032 RMK A01 T00250007  RH  088%=      5-min Rain = 0
KMD1 090404Z 35008KT 02/01 A3032 RMK A01 T00240006  RH  088%=      5-min Rain = 0
KMD1 090405Z 35007KT 02/01 A3032 RMK A01 T00240007  RH  088%=      5-min Rain = 0
KMD1 090406Z 35009KT 02/01 A3032 RMK A01 T00240007  RH  088%=      5-min Rain = 0
KMD1 090407Z 34008KT 02/01 A3032 RMK A01 T00240006  RH  088%=      5-min Rain = 0
KMD1 090408Z 35008KT 02/01 A3032 RMK A01 T00240006  RH  088%=      5-min Rain = 0
KMD1 090409Z 35006KT 02/01 A3032 RMK A01 T00240006  RH  088%=      5-min Rain = 0
KMD1 090410Z 35006KT 02/01 A3032 RMK A01 T00240006  RH  088%=      5-min Rain = 0
KMD1 090411Z 34007KT 02/01 A3032 RMK A01 T00240007  RH  089%=      5-min Rain = 0
KMD1 090412Z 34009KT 02/01 A3032 RMK A01 T00240007  RH  089%=      5-min Rain = 0
KMD1 090413Z 35008KT 02/01 A3032 RMK A01 T00230006  RH  088%=      5-min Rain = 0
KMD1 090414Z 34007KT 02/01 A3032 RMK A01 T00230005  RH  088%=      5-min Rain = 0
KMD1 090415Z 34010KT 02/01 A3032 RMK A01 T00230005  RH  088%=      5-min Rain = 0
KMD1 090416Z 33012KT 02/00 A3032 RMK A01 T00230004  RH  088%=      5-min Rain = 0
KMD1 090417Z 34010KT 02/00 A3032 RMK A01 T00220003  RH  087%=      5-min Rain = 0
KMD1 090418Z 34011KT 02/00 A3032 RMK A01 T00220004  RH  087%=      5-min Rain = 0
KMD1 090419Z 34010KT 02/00 A3032 RMK A01 T00220003  RH  087%=      5-min Rain = 0
KMD1 090420Z 33012KT 02/00 A3032 RMK A01 T00220003  RH  087%=      5-min Rain = 0
KMD1 090421Z 33013KT 02/00 A3032 RMK A01 T00220002  RH  087%=      5-min Rain = 0
KMD1 090422Z 34011KT 02/00 A3032 RMK A01 T00210002  RH  087%=      5-min Rain = 0
KMD1 090423Z 34012KT 02/00 A3032 RMK A01 T00210001  RH  087%=      5-min Rain = 0
KMD1 090424Z 34014KT 02/00 A3032 RMK A01 T00210000  RH  086%=      5-min Rain = 0
KMD1 090425Z 34012KT 02/M00 A3032 RMK A01 T00211001  RH  085%=      5-min Rain = 0
KMD1 090426Z 34013KT 02/M00 A3032 RMK A01 T00211002  RH  085%=      5-min Rain = 0
KMD1 090427Z 34010KT 02/M00 A3032 RMK A01 T00211003  RH  084%=      5-min Rain = 0
KMD1 090428Z 34011KT 02/M00 A3032 RMK A01 T00201003  RH  084%=      5-min Rain = 0
KMD1 090429Z 34009KT 02/M00 A3032 RMK A01 T00211003  RH  084%=      5-min Rain = 0
KMD1 090430Z 35013KT 02/M00 A3032 RMK A01 T00201003  RH  085%=      5-min Rain = 0
KMD1 090431Z 34010KT 02/M00 A3033 RMK A01 T00201003  RH  084%=      5-min Rain = 0
KMD1 090432Z 34011KT 02/M00 A3033 RMK A01 T00211003  RH  084%=      5-min Rain = 0
KMD1 090433Z 35012KT 02/M00 A3033 RMK A01 T00211003  RH  084%=      5-min Rain = 0
KMD1 090434Z 34011KT 02/M00 A3033 RMK A01 T00201004  RH  084%=      5-min Rain = 0
KMD1 090435Z 34010KT 02/M00 A3032 RMK A01 T00201004  RH  084%=      5-min Rain = 0
KMD1 090436Z 34009KT 02/M00 A3032 RMK A01 T00201004  RH  084%=      5-min Rain = 0
KMD1 090437Z 35010KT 02/M00 A3032 RMK A01 T00201004  RH  084%=      5-min Rain = 0
KMD1 090438Z 35009KT 02/M00 A3032 RMK A01 T00201004  RH  084%=      5-min Rain = 0
KMD1 090439Z 34010KT 02/M00 A3032 RMK A01 T00201004  RH  084%=      5-min Rain = 0
KMD1 090440Z 34008KT 02/M01 A3032 RMK A01 T00201005  RH  084%=      5-min Rain = 0
KMD1 090441Z 34007KT 02/M00 A3033 RMK A01 T00201004  RH  084%=      5-min Rain = 0
KMD1 090442Z 34008KT 02/M00 A3033 RMK A01 T00191004  RH  085%=      5-min Rain = 0
KMD1 090443Z 33010KT 02/M00 A3032 RMK A01 T00191004  RH  085%=      5-min Rain = 0
KMD1 090444Z 34012KT 02/M00 A3033 RMK A01 T00191004  RH  085%=      5-min Rain = 0
KMD1 090445Z 33009KT 02/M00 A3033 RMK A01 T00191004  RH  085%=      5-min Rain = 0
KMD1 090446Z 33009KT 02/M00 A3033 RMK A01 T00191004  RH  085%=      5-min Rain = 0
KMD1 090447Z 34008KT 02/M01 A3033 RMK A01 T00191005  RH  085%=      5-min Rain = 0
KMD1 090448Z 33008KT 02/M01 A3033 RMK A01 T00181005  RH  085%=      5-min Rain = 0
KMD1 090449Z 33008KT 02/M01 A3033 RMK A01 T00181005  RH  085%=      5-min Rain = 0
KMD1 090450Z 34007KT 02/M00 A3033 RMK A01 T00181004  RH  085%=      5-min Rain = 0
KMD1 090451Z 33008KT 02/M00 A3033 RMK A01 T00181004  RH  085%=      5-min Rain = 0
KMD1 090452Z 35008KT 02/M00 A3033 RMK A01 T00181004  RH  086%=      5-min Rain = 0
KMD1 090453Z 34009KT 02/M01 A3033 RMK A01 T00171005  RH  085%=      5-min Rain = 0
KMD1 090454Z 35007KT 02/M01 A3033 RMK A01 T00171005  RH  085%=      5-min Rain = 0
KMD1 090455Z 34007KT 02/M00 A3033 RMK A01 T00181004  RH  085%=      5-min Rain = 0
KMD1 090456Z 34007KT 02/M00 A3033 RMK A01 T00181004  RH  086%=      5-min Rain = 0
KMD1 090457Z 35007KT 02/M00 A3033 RMK A01 T00181003  RH  086%=      5-min Rain = 0
KMD1 090458Z 34008KT 02/M00 A3033 RMK A01 T00181003  RH  086%=      5-min Rain = 0
KMD1 090459Z 34007KT 02/M00 A3033 RMK A01 T00181003  RH  086%=      5-min Rain = 0
KMD1 090500Z 35006KT 02/M00 A3033 RMK A01 T00191003  RH  086%=      5-min Rain = 0
KMD1 090501Z 35006KT 02/M00 A3033 RMK A01 T00191003  RH  086%=      5-min Rain = 0
KMD1 090502Z 34006KT 02/M00 A3033 RMK A01 T00191003  RH  086%=      5-min Rain = 0
KMD1 090503Z 34006KT 02/M00 A3033 RMK A01 T00191003  RH  086%=      5-min Rain = 0
KMD1 090504Z 33006KT 02/M00 A3033 RMK A01 T00191003  RH  086%=      5-min Rain = 0
KMD1 090505Z 35006KT 02/M00 A3033 RMK A01 T00191003  RH  086%=      5-min Rain = 0
KMD1 090506Z 34007KT 02/M00 A3033 RMK A01 T00191003  RH  086%=      5-min Rain = 0
KMD1 090507Z 34005KT 02/M00 A3033 RMK A01 T00191003  RH  086%=      5-min Rain = 0
KMD1 090508Z 34007KT 02/M00 A3033 RMK A01 T00191002  RH  086%=      5-min Rain = 0
KMD1 090509Z 34006KT 02/M00 A3033 RMK A01 T00191002  RH  086%=      5-min Rain = 0
KMD1 090510Z 34004KT 02/M00 A3033 RMK A01 T00191002  RH  086%=      5-min Rain = 0
KMD1 090511Z 34004KT 02/M00 A3033 RMK A01 T00191002  RH  086%=      5-min Rain = 0
KMD1 090512Z 33005KT 02/M00 A3033 RMK A01 T00191002  RH  086%=      5-min Rain = 0
KMD1 090513Z 33005KT 02/M00 A3033 RMK A01 T00191002  RH  086%=      5-min Rain = 0
KMD1 090514Z 34005KT 02/M00 A3033 RMK A01 T00191001  RH  086%=      5-min Rain = 0
KMD1 090515Z 34005KT 02/M00 A3033 RMK A01 T00191001  RH  086%=      5-min Rain = 0
KMD1 090516Z 35005KT 02/M00 A3033 RMK A01 T00191001  RH  086%=      5-min Rain = 0
KMD1 090517Z 34004KT 02/M00 A3033 RMK A01 T00191001  RH  087%=      5-min Rain = 0
KMD1 090518Z 34004KT 02/M00 A3032 RMK A01 T00191001  RH  087%=      5-min Rain = 0
KMD1 090519Z 34004KT 02/M00 A3032 RMK A01 T00191001  RH  087%=      5-min Rain = 0
KMD1 090520Z 34003KT 02/00 A3032 RMK A01 T001900-0  RH  087%=      5-min Rain = 0
KMD1 090521Z 34005KT 02/00 A3032 RMK A01 T00190000  RH  087%=      5-min Rain = 0
KMD1 090522Z 34004KT 02/00 A3032 RMK A01 T001900-0  RH  087%=      5-min Rain = 0
KMD1 090523Z 33004KT 02/00 A3032 RMK A01 T00190000  RH  087%=      5-min Rain = 0
KMD1 090524Z 32004KT 02/00 A3032 RMK A01 T00190000  RH  087%=      5-min Rain = 0
KMD1 090525Z 33004KT 02/00 A3032 RMK A01 T001900-0  RH  087%=      5-min Rain = 0
KMD1 090526Z 34004KT 02/00 A3032 RMK A01 T00190000  RH  087%=      5-min Rain = 0
KMD1 090527Z 34003KT 02/00 A3032 RMK A01 T00190000  RH  087%=      5-min Rain = 0
KMD1 090528Z 34002KT 02/00 A3032 RMK A01 T00190000  RH  087%=      5-min Rain = 0
KMD1 090529Z 33004KT 02/00 A3033 RMK A01 T00190000  RH  087%=      5-min Rain = 0
KMD1 090530Z 33004KT 02/00 A3033 RMK A01 T00190000  RH  087%=      5-min Rain = 0
KMD1 090531Z 32003KT 02/00 A3033 RMK A01 T00190000  RH  087%=      5-min Rain = 0
KMD1 090532Z 32003KT 02/00 A3033 RMK A01 T00190001  RH  088%=      5-min Rain = 0
KMD1 090533Z 32004KT 02/00 A3033 RMK A01 T00200001  RH  088%=      5-min Rain = 0
KMD1 090534Z 32003KT 02/00 A3033 RMK A01 T00200002  RH  088%=      5-min Rain = 0
KMD1 090535Z 31003KT 02/00 A3033 RMK A01 T00200002  RH  088%=      5-min Rain = 0
KMD1 090536Z 31004KT 02/00 A3033 RMK A01 T00200003  RH  088%=      5-min Rain = 0
KMD1 090537Z 32004KT 02/00 A3033 RMK A01 T00200002  RH  088%=      5-min Rain = 0
KMD1 090538Z 32006KT 02/00 A3033 RMK A01 T00210003  RH  088%=      5-min Rain = 0
KMD1 090539Z 33005KT 02/00 A3033 RMK A01 T00210003  RH  088%=      5-min Rain = 0
KMD1 090540Z 33003KT 02/00 A3033 RMK A01 T00200002  RH  088%=      5-min Rain = 0
KMD1 090541Z 32004KT 02/00 A3033 RMK A01 T00210002  RH  088%=      5-min Rain = 0
KMD1 090542Z 31003KT 02/00 A3033 RMK A01 T00210003  RH  088%=      5-min Rain = 0
KMD1 090543Z 32003KT 02/00 A3033 RMK A01 T00210003  RH  088%=      5-min Rain = 0
KMD1 090544Z 32004KT 02/00 A3033 RMK A01 T00210004  RH  088%=      5-min Rain = 0
KMD1 090545Z 32004KT 02/00 A3033 RMK A01 T00210004  RH  088%=      5-min Rain = 0
KMD1 090546Z 31004KT 02/00 A3033 RMK A01 T00210004  RH  088%=      5-min Rain = 0
KMD1 090547Z 32004KT 02/00 A3033 RMK A01 T00210004  RH  089%=      5-min Rain = 0
KMD1 090548Z 32004KT 02/00 A3033 RMK A01 T00210004  RH  089%=      5-min Rain = 0
KMD1 090549Z 32005KT 02/00 A3033 RMK A01 T00210004  RH  089%=      5-min Rain = 0
KMD1 090550Z 32004KT 02/00 A3033 RMK A01 T00210004  RH  089%=      5-min Rain = 0
KMD1 090551Z 31005KT 02/00 A3033 RMK A01 T00210004  RH  089%=      5-min Rain = 0
KMD1 090552Z 32005KT 02/00 A3033 RMK A01 T00210004  RH  089%=      5-min Rain = 0
KMD1 090553Z 31005KT 02/00 A3033 RMK A01 T00220004  RH  089%=      5-min Rain = 0
KMD1 090554Z 31005KT 02/00 A3033 RMK A01 T00210004  RH  088%=      5-min Rain = 0
KMD1 090555Z 31004KT 02/00 A3033 RMK A01 T00210004  RH  088%=      5-min Rain = 0
KMD1 090556Z 31005KT 02/00 A3033 RMK A01 T00210004  RH  088%=      5-min Rain = 0
KMD1 090557Z 32005KT 02/00 A3033 RMK A01 T00210004  RH  088%=      5-min Rain = 0
KMD1 090558Z 32005KT 02/00 A3033 RMK A01 T00210004  RH  088%=      5-min Rain = 0
KMD1 090559Z 32004KT 02/00 A3033 RMK A01 T00210004  RH  088%=      5-min Rain = 0

Page generated in 0.1472 seconds.